Time,TemperatureF,DewpointF,PressureIn,WindDirection,WindDirectionDegrees,WindSpeedMPH,WindSpeedGustMPH,Humidity,HourlyPrecipIn,Conditions,Clouds,dailyrainin,SolarRadiationWatts/m^2,SoftwareType,DateUTC
2013-09-17 00:00:00,61.7,60.0,30.12,SSE,160,0.0,0.0,94,0.00,RA,,0.00,0.0,WeatherDisplay:10.37,2013-09-17 05:00:00,
2013-09-17 00:01:00,61.7,60.0,30.12,SSE,160,0.0,0.0,94,0.00,RA,,0.00,0.0,WeatherDisplay:10.37,2013-09-17 05:01:00,
2013-09-17 00:02:00,61.7,60.0,30.12,SSE,159,0.0,0.0,94,0.00,RA,,0.00,0.0,WeatherDisplay:10.37,2013-09-17 05:02:00,
2013-09-17 00:03:00,61.8,60.1,30.12,SSE,159,0.0,0.0,94,0.00,RA,,0.00,0.0,WeatherDisplay:10.37,2013-09-17 05:03:00,
2013-09-17 00:04:00,61.7,60.0,30.12,SSE,159,0.0,0.0,94,0.00,RA,,0.00,0.0,WeatherDisplay:10.37,2013-09-17 05:04:00,
2013-09-17 00:05:00,61.7,60.0,30.12,SE,139,0.0,0.0,94,0.00,RA,,0.00,0.0,WeatherDisplay:10.37,2013-09-17 05:05:00,
2013-09-17 00:07:00,61.7,60.0,30.12,SE,139,0.0,0.0,94,0.00,CLR,,0.00,0.0,WeatherDisplay:10.37,2013-09-17 05:07:00,
2013-09-17 00:08:00,61.8,60.1,30.12,SE,139,0.0,0.0,94,0.00,CLR,,0.00,0.0,WeatherDisplay:10.37,2013-09-17 05:08:00,
2013-09-17 00:09:00,61.8,60.1,30.12,SE,139,0.0,0.0,94,0.00,CLR,,0.00,0.0,WeatherDisplay:10.37,2013-09-17 05:09:00,
2013-09-17 00:12:00,61.8,60.1,30.12,SE,131,0.0,0.0,94,0.00,CLR,,0.00,0.0,WeatherDisplay:10.37,2013-09-17 05:12:00,
2013-09-17 00:13:00,61.8,60.1,30.12,SE,131,0.0,0.0,94,0.00,CLR,,0.00,0.0,WeatherDisplay:10.37,2013-09-17 05:13:00,
2013-09-17 00:14:00,61.8,60.1,30.12,SE,131,0.0,0.0,94,0.00,CLR,,0.00,0.0,WeatherDisplay:10.37,2013-09-17 05:14:00,
2013-09-17 00:15:00,61.8,60.1,30.12,SE,131,0.0,0.0,94,0.00,CLR,,0.00,0.0,WeatherDisplay:10.37,2013-09-17 05:15:00,
2013-09-17 00:17:00,61.8,60.1,30.12,SE,131,0.0,0.0,94,0.00,CLR,,0.00,0.0,WeatherDisplay:10.37,2013-09-17 05:17:00,
2013-09-17 00:18:00,61.8,60.1,30.12,SE,125,0.0,0.0,94,0.00,CLR,,0.00,0.0,WeatherDisplay:10.37,2013-09-17 05:18:00,
2013-09-17 00:19:00,61.8,59.8,30.12,SE,125,0.0,0.0,93,0.00,CLR,,0.00,0.0,WeatherDisplay:10.37,2013-09-17 05:19:00,
2013-09-17 00:20:00,61.8,59.8,30.12,SE,125,0.0,0.0,93,0.00,CLR,,0.00,0.0,WeatherDisplay:10.37,2013-09-17 05:20:00,
2013-09-17 00:22:00,61.8,60.1,30.12,SE,125,0.0,0.0,94,0.00,CLR,,0.00,0.0,WeatherDisplay:10.37,2013-09-17 05:22:00,
2013-09-17 00:23:00,61.8,59.8,30.12,SE,125,0.3,0.0,93,0.00,CLR,,0.00,0.0,WeatherDisplay:10.37,2013-09-17 05:23:00,
2013-09-17 00:24:00,61.9,59.9,30.12,SE,125,0.4,3.5,93,0.00,CLR,,0.00,0.0,WeatherDisplay:10.37,2013-09-17 05:24:00,
2013-09-17 00:25:00,61.9,59.9,30.12,SE,125,0.1,3.5,93,0.00,CLR,,0.00,0.0,WeatherDisplay:10.37,2013-09-17 05:25:00,
2013-09-17 00:28:00,61.9,59.9,30.12,NE,51,0.0,0.0,93,0.00,CLR,,0.00,0.0,WeatherDisplay:10.37,2013-09-17 05:28:00,
2013-09-17 00:29:00,61.9,59.9,30.12,NE,51,0.0,0.0,93,0.00,CLR,,0.00,0.0,WeatherDisplay:10.37,2013-09-17 05:29:00,
2013-09-17 00:30:00,61.9,59.9,30.12,NE,51,0.0,0.0,93,0.00,CLR,,0.00,0.0,WeatherDisplay:10.37,2013-09-17 05:30:00,
2013-09-17 00:33:00,61.9,59.9,30.12,ENE,71,0.1,0.0,93,0.00,CLR,,0.00,0.0,WeatherDisplay:10.37,2013-09-17 05:33:00,
2013-09-17 00:34:00,61.9,59.9,30.12,East,93,0.0,1.2,93,0.00,CLR,,0.00,0.0,WeatherDisplay:10.37,2013-09-17 05:34:00,
2013-09-17 00:35:00,61.9,59.9,30.12,NE,44,0.0,0.0,93,0.00,CLR,,0.00,0.0,WeatherDisplay:10.37,2013-09-17 05:35:00,
2013-09-17 00:36:00,61.9,59.9,30.12,NE,44,0.0,0.0,93,0.00,CLR,,0.00,0.0,WeatherDisplay:10.37,2013-09-17 05:36:00,
2013-09-17 00:38:00,62.0,60.0,30.12,East,84,0.0,0.0,93,0.00,CLR,,0.00,0.0,WeatherDisplay:10.37,2013-09-17 05:38:00,
2013-09-17 00:39:00,61.9,59.9,30.12,East,84,0.0,0.0,93,0.00,CLR,,0.00,0.0,WeatherDisplay:10.37,2013-09-17 05:39:00,
2013-09-17 00:40:00,62.0,60.0,30.12,ESE,102,0.0,0.0,93,0.00,CLR,,0.00,0.0,WeatherDisplay:10.37,2013-09-17 05:40:00,
2013-09-17 00:41:00,62.0,60.0,30.12,ESE,102,0.0,0.0,93,0.00,CLR,,0.00,0.0,WeatherDisplay:10.37,2013-09-17 05:41:00,
2013-09-17 00:43:00,62.0,60.0,30.12,SE,140,0.2,0.0,93,0.00,CLR,,0.00,0.0,WeatherDisplay:10.37,2013-09-17 05:43:00,
2013-09-17 00:44:00,62.0,60.0,30.12,SE,140,0.2,2.3,93,0.00,CLR,,0.00,0.0,WeatherDisplay:10.37,2013-09-17 05:44:00,
2013-09-17 00:45:00,62.0,60.0,30.12,North,5,0.0,0.0,93,0.00,CLR,,0.00,0.0,WeatherDisplay:10.37,2013-09-17 05:45:00,
2013-09-17 00:46:00,62.0,60.0,30.12,North,5,0.0,0.0,93,0.00,CLR,,0.00,0.0,WeatherDisplay:10.37,2013-09-17 05:46:00,
2013-09-17 00:49:00,62.0,60.0,30.12,East,86,0.0,0.0,93,0.00,CLR,,0.00,0.0,WeatherDisplay:10.37,2013-09-17 05:49:00,
2013-09-17 00:50:00,62.0,60.0,30.12,East,90,0.0,0.0,93,0.00,CLR,,0.00,0.0,WeatherDisplay:10.37,2013-09-17 05:50:00,
2013-09-17 00:51:00,62.0,60.0,30.12,East,90,0.0,0.0,93,0.00,CLR,,0.00,0.0,WeatherDisplay:10.37,2013-09-17 05:51:00,
2013-09-17 00:54:00,62.0,60.0,30.12,SE,141,0.5,2.3,93,0.00,CLR,,0.00,0.0,WeatherDisplay:10.37,2013-09-17 05:54:00,
2013-09-17 00:55:00,62.0,60.0,30.12,SSE,151,0.0,1.2,93,0.00,CLR,,0.00,0.0,WeatherDisplay:10.37,2013-09-17 05:55:00,
2013-09-17 00:56:00,62.0,60.0,30.12,SSE,151,0.0,1.2,93,0.00,CLR,,0.00,0.0,WeatherDisplay:10.37,2013-09-17 05:56:00,
2013-09-17 00:59:00,62.0,60.0,30.12,ESE,109,0.1,1.2,93,0.00,CLR,,0.00,0.0,WeatherDisplay:10.37,2013-09-17 05:59:00,
2013-09-17 01:00:00,62.0,60.0,30.12,SE,130,0.0,0.0,93,0.00,CLR,,0.00,0.0,WeatherDisplay:10.37,2013-09-17 06:00:00,
2013-09-17 01:01:00,62.0,60.0,30.12,SE,130,0.0,0.0,93,0.00,CLR,,0.00,0.0,WeatherDisplay:10.37,2013-09-17 06:01:00,
2013-09-17 01:04:00,62.0,60.0,30.12,SE,136,0.0,1.0,93,0.00,CLR,,0.00,0.0,WeatherDisplay:10.37,2013-09-17 06:04:00,
2013-09-17 01:05:00,62.1,60.1,30.12,SE,134,0.2,1.2,93,0.00,CLR,,0.00,0.0,WeatherDisplay:10.37,2013-09-17 06:05:00,
2013-09-17 01:06:00,62.1,60.1,30.12,SE,130,0.0,0.0,93,0.00,CLR,,0.00,0.0,WeatherDisplay:10.37,2013-09-17 06:06:00,
2013-09-17 01:09:00,62.0,60.0,30.12,SE,133,0.0,0.0,93,0.00,CLR,,0.00,0.0,WeatherDisplay:10.37,2013-09-17 06:09:00,
2013-09-17 01:10:00,62.0,60.0,30.12,SE,133,0.0,0.0,93,0.00,CLR,,0.00,0.0,WeatherDisplay:10.37,2013-09-17 06:10:00,
2013-09-17 01:11:00,62.0,60.0,30.12,SE,133,0.0,0.0,93,0.00,CLR,,0.00,0.0,WeatherDisplay:10.37,2013-09-17 06:11:00,
2013-09-17 01:15:00,62.0,60.0,30.11,ESE,107,0.4,3.5,93,0.00,CLR,,0.00,0.0,WeatherDisplay:10.37,2013-09-17 06:15:00,
2013-09-17 01:16:00,62.0,60.0,30.11,ESE,107,0.0,0.0,93,0.00,CLR,,0.00,0.0,WeatherDisplay:10.37,2013-09-17 06:16:00,
2013-09-17 01:20:00,62.0,60.0,30.12,ESE,110,0.1,1.2,93,0.00,CLR,,0.00,0.0,WeatherDisplay:10.37,2013-09-17 06:20:00,
2013-09-17 01:21:00,62.0,60.0,30.12,ESE,110,0.0,0.0,93,0.00,CLR,,0.00,0.0,WeatherDisplay:10.37,2013-09-17 06:21:00,
2013-09-17 01:25:00,62.0,60.0,30.12,SSE,147,0.0,1.2,93,0.00,CLR,,0.00,0.0,WeatherDisplay:10.37,2013-09-17 06:25:00,
2013-09-17 01:26:00,62.0,60.0,30.12,SE,141,0.0,1.2,93,0.00,CLR,,0.00,0.0,WeatherDisplay:10.37,2013-09-17 06:26:00,
2013-09-17 01:27:00,62.0,60.0,30.12,SE,141,0.2,0.0,93,0.00,CLR,,0.00,0.0,WeatherDisplay:10.37,2013-09-17 06:27:00,
2013-09-17 01:31:00,62.0,60.0,30.12,WSW,245,0.0,0.0,93,0.00,CLR,,0.00,0.0,WeatherDisplay:10.37,2013-09-17 06:31:00,
2013-09-17 01:32:00,62.0,60.0,30.12,NNE,28,0.5,3.5,93,0.00,CLR,,0.00,0.0,WeatherDisplay:10.37,2013-09-17 06:32:00,
2013-09-17 01:36:00,62.0,60.0,30.11,ESE,119,0.0,0.0,93,0.00,CLR,,0.00,0.0,WeatherDisplay:10.37,2013-09-17 06:36:00,
2013-09-17 01:37:00,62.0,60.0,30.11,ESE,119,0.0,0.0,93,0.00,CLR,,0.00,0.0,WeatherDisplay:10.37,2013-09-17 06:37:00,
2013-09-17 01:38:00,62.0,60.0,30.11,ESE,119,0.0,0.0,93,0.00,CLR,,0.00,0.0,WeatherDisplay:10.37,2013-09-17 06:38:00,
2013-09-17 01:41:00,61.9,59.9,30.11,ESE,120,0.0,0.0,93,0.00,CLR,,0.00,0.0,WeatherDisplay:10.37,2013-09-17 06:41:00,
2013-09-17 01:42:00,61.9,59.9,30.11,ESE,120,0.0,0.0,93,0.00,CLR,,0.00,0.0,WeatherDisplay:10.37,2013-09-17 06:42:00,
2013-09-17 01:43:00,61.9,59.9,30.11,ESE,120,0.0,0.0,93,0.00,CLR,,0.00,0.0,WeatherDisplay:10.37,2013-09-17 06:43:00,
2013-09-17 01:46:00,61.9,59.9,30.11,ESE,120,0.0,0.0,93,0.00,CLR,,0.00,0.0,WeatherDisplay:10.37,2013-09-17 06:46:00,
2013-09-17 01:47:00,61.9,59.9,30.11,ESE,120,0.0,0.0,93,0.00,CLR,,0.00,0.0,WeatherDisplay:10.37,2013-09-17 06:47:00,
2013-09-17 01:48:00,61.9,59.9,30.11,ESE,120,0.0,0.0,93,0.00,CLR,,0.00,0.0,WeatherDisplay:10.37,2013-09-17 06:48:00,
2013-09-17 01:51:00,61.8,59.8,30.11,ENE,64,0.0,0.0,93,0.00,CLR,,0.00,0.0,WeatherDisplay:10.37,2013-09-17 06:51:00,
2013-09-17 01:52:00,61.8,59.8,30.11,ENE,64,0.0,0.0,93,0.00,CLR,,0.00,0.0,WeatherDisplay:10.37,2013-09-17 06:52:00,
2013-09-17 01:53:00,61.8,59.8,30.11,ESE,105,0.0,0.0,93,0.00,CLR,,0.00,0.0,WeatherDisplay:10.37,2013-09-17 06:53:00,
2013-09-17 01:54:00,61.8,59.8,30.10,ESE,105,0.0,0.0,93,0.00,CLR,,0.00,0.0,WeatherDisplay:10.37,2013-09-17 06:54:00,
2013-09-17 01:57:00,61.8,59.8,30.11,ESE,113,0.0,0.0,93,0.00,CLR,,0.00,0.0,WeatherDisplay:10.37,2013-09-17 06:57:00,
2013-09-17 01:58:00,61.8,59.8,30.11,ESE,107,0.0,0.0,93,0.00,CLR,,0.00,0.0,WeatherDisplay:10.37,2013-09-17 06:58:00,
2013-09-17 01:59:00,61.8,59.8,30.11,ESE,107,0.0,0.0,93,0.00,CLR,,0.00,0.0,WeatherDisplay:10.37,2013-09-17 06:59:00,
2013-09-17 02:00:00,61.8,59.8,30.11,SE,145,0.0,1.2,93,0.00,CLR,,0.00,0.0,WeatherDisplay:10.37,2013-09-17 07:00:00,
2013-09-17 02:02:00,61.8,59.8,30.11,ESE,123,0.2,2.3,93,0.00,CLR,,0.00,0.0,WeatherDisplay:10.37,2013-09-17 07:02:00,
2013-09-17 02:04:00,61.8,59.8,30.10,ESE,123,0.0,0.0,93,0.00,CLR,,0.00,0.0,WeatherDisplay:10.37,2013-09-17 07:04:00,
2013-09-17 02:06:00,61.8,59.8,30.10,East,92,0.1,1.2,93,0.00,CLR,,0.00,0.0,WeatherDisplay:10.37,2013-09-17 07:06:00,
2013-09-17 02:07:00,61.8,59.8,30.10,SW,216,0.0,3.5,93,0.00,CLR,,0.00,0.0,WeatherDisplay:10.37,2013-09-17 07:07:00,
2013-09-17 02:08:00,61.8,59.8,30.10,SW,216,0.0,0.0,93,0.00,CLR,,0.00,0.0,WeatherDisplay:10.37,2013-09-17 07:08:00,
2013-09-17 02:09:00,61.8,59.8,30.10,NNE,32,0.2,0.0,93,0.00,CLR,,0.00,0.0,WeatherDisplay:10.37,2013-09-17 07:09:00,
2013-09-17 02:11:00,61.8,59.8,30.10,ESE,109,0.4,2.3,93,0.00,CLR,,0.00,0.0,WeatherDisplay:10.37,2013-09-17 07:11:00,
2013-09-17 02:12:00,61.8,59.8,30.10,SSW,205,0.3,3.5,93,0.00,CLR,,0.00,0.0,WeatherDisplay:10.37,2013-09-17 07:12:00,
2013-09-17 02:13:00,61.8,59.8,30.10,SSW,205,0.1,1.2,93,0.00,CLR,,0.00,0.0,WeatherDisplay:10.37,2013-09-17 07:13:00,
2013-09-17 02:14:00,61.8,59.8,30.10,SE,144,0.2,1.2,93,0.00,CLR,,0.00,0.0,WeatherDisplay:10.37,2013-09-17 07:14:00,
2013-09-17 02:16:00,61.8,59.8,30.10,SE,142,0.0,1.2,93,0.00,CLR,,0.00,0.0,WeatherDisplay:10.37,2013-09-17 07:16:00,
2013-09-17 02:18:00,61.8,59.8,30.10,East,92,0.3,2.3,93,0.00,CLR,,0.00,0.0,WeatherDisplay:10.37,2013-09-17 07:18:00,
2013-09-17 02:19:00,61.8,59.8,30.09,East,92,0.0,0.0,93,0.00,CLR,,0.00,0.0,WeatherDisplay:10.37,2013-09-17 07:19:00,
2013-09-17 02:20:00,61.8,59.8,30.09,East,92,0.0,0.0,93,0.00,CLR,,0.00,0.0,WeatherDisplay:10.37,2013-09-17 07:20:00,
2013-09-17 02:21:00,61.8,59.8,30.10,ESE,118,0.3,1.2,93,0.00,CLR,,0.00,0.0,WeatherDisplay:10.37,2013-09-17 07:21:00,
2013-09-17 02:23:00,61.8,59.8,30.10,ESE,122,0.0,0.0,93,0.00,CLR,,0.00,0.0,WeatherDisplay:10.37,2013-09-17 07:23:00,
2013-09-17 02:24:00,61.8,59.8,30.10,ESE,122,0.0,0.0,93,0.00,CLR,,0.00,0.0,WeatherDisplay:10.37,2013-09-17 07:24:00,
2013-09-17 02:25:00,61.8,59.8,30.10,ESE,122,0.0,0.0,93,0.00,CLR,,0.00,0.0,WeatherDisplay:10.37,2013-09-17 07:25:00,
2013-09-17 02:26:00,61.8,59.8,30.10,ESE,122,0.0,0.0,93,0.00,CLR,,0.00,0.0,WeatherDisplay:10.37,2013-09-17 07:26:00,
2013-09-17 02:28:00,61.9,60.2,30.10,East,100,0.1,1.2,94,0.00,CLR,,0.00,0.0,WeatherDisplay:10.37,2013-09-17 07:28:00,
2013-09-17 02:29:00,61.9,60.2,30.10,SE,125,0.0,1.2,94,0.00,CLR,,0.00,0.0,WeatherDisplay:10.37,2013-09-17 07:29:00,
2013-09-17 02:30:00,61.9,60.2,30.10,SE,134,0.5,5.0,94,0.00,CLR,,0.00,0.0,WeatherDisplay:10.37,2013-09-17 07:30:00,
2013-09-17 02:31:00,61.9,60.2,30.10,SE,126,1.2,4.6,94,0.00,CLR,,0.00,0.0,WeatherDisplay:10.37,2013-09-17 07:31:00,
2013-09-17 02:33:00,61.9,60.2,30.10,SE,126,0.0,0.0,94,0.00,CLR,,0.00,0.0,WeatherDisplay:10.37,2013-09-17 07:33:00,
2013-09-17 02:34:00,61.9,60.2,30.10,SE,126,0.0,1.0,94,0.00,CLR,,0.00,0.0,WeatherDisplay:10.37,2013-09-17 07:34:00,
2013-09-17 02:35:00,61.9,60.2,30.10,East,101,0.9,3.5,94,0.00,CLR,,0.00,0.0,WeatherDisplay:10.37,2013-09-17 07:35:00,
2013-09-17 02:36:00,61.9,60.2,30.10,ESE,123,0.8,3.5,94,0.00,CLR,,0.00,0.0,WeatherDisplay:10.37,2013-09-17 07:36:00,
2013-09-17 02:38:00,62.0,60.3,30.10,NE,36,0.0,3.5,94,0.00,CLR,,0.00,0.0,WeatherDisplay:10.37,2013-09-17 07:38:00,
2013-09-17 02:39:00,62.0,60.3,30.10,NE,36,0.0,0.0,94,0.00,CLR,,0.00,0.0,WeatherDisplay:10.37,2013-09-17 07:39:00,
2013-09-17 02:40:00,62.0,60.3,30.10,East,91,0.0,0.0,94,0.00,CLR,,0.00,0.0,WeatherDisplay:10.37,2013-09-17 07:40:00,
2013-09-17 02:41:00,62.0,60.3,30.10,ESE,106,0.0,0.0,94,0.00,CLR,,0.00,0.0,WeatherDisplay:10.37,2013-09-17 07:41:00,
2013-09-17 02:42:00,62.0,60.3,30.10,ESE,104,0.0,0.0,94,0.00,CLR,,0.00,0.0,WeatherDisplay:10.37,2013-09-17 07:42:00,
2013-09-17 02:43:00,62.0,60.3,30.10,SE,132,0.8,2.3,94,0.00,CLR,,0.00,0.0,WeatherDisplay:10.37,2013-09-17 07:43:00,
2013-09-17 02:44:00,62.0,60.3,30.10,SE,132,0.6,2.3,94,0.00,CLR,,0.00,0.0,WeatherDisplay:10.37,2013-09-17 07:44:00,
2013-09-17 02:45:00,62.0,60.3,30.10,SE,139,0.0,1.2,94,0.00,CLR,,0.00,0.0,WeatherDisplay:10.37,2013-09-17 07:45:00,
2013-09-17 02:46:00,62.0,60.3,30.10,SSE,157,0.2,1.2,94,0.00,CLR,,0.00,0.0,WeatherDisplay:10.37,2013-09-17 07:46:00,
2013-09-17 02:47:00,62.0,60.3,30.10,ESE,117,0.6,3.5,94,0.00,CLR,,0.00,0.0,WeatherDisplay:10.37,2013-09-17 07:47:00,
2013-09-17 02:48:00,62.0,60.3,30.10,ESE,117,0.0,2.3,94,0.00,CLR,,0.00,0.0,WeatherDisplay:10.37,2013-09-17 07:48:00,
2013-09-17 02:49:00,62.0,60.3,30.10,ESE,117,0.0,0.0,94,0.00,CLR,,0.00,0.0,WeatherDisplay:10.37,2013-09-17 07:49:00,
2013-09-17 02:51:00,62.0,60.3,30.10,SE,124,0.2,0.0,94,0.00,CLR,,0.00,0.0,WeatherDisplay:10.37,2013-09-17 07:51:00,
2013-09-17 02:53:00,62.0,60.0,30.10,East,93,0.0,2.3,93,0.00,CLR,,0.00,0.0,WeatherDisplay:10.37,2013-09-17 07:53:00,
2013-09-17 02:54:00,62.0,60.0,30.10,East,94,0.0,0.0,93,0.00,CLR,,0.00,0.0,WeatherDisplay:10.37,2013-09-17 07:54:00,
2013-09-17 02:56:00,62.0,60.0,30.10,SE,145,0.3,3.5,93,0.00,CLR,,0.00,0.0,WeatherDisplay:10.37,2013-09-17 07:56:00,
2013-09-17 02:57:00,62.0,60.3,30.10,SE,145,0.0,0.0,94,0.00,CLR,,0.00,0.0,WeatherDisplay:10.37,2013-09-17 07:57:00,
2013-09-17 02:58:00,62.1,60.4,30.10,SE,144,0.0,0.0,94,0.00,CLR,,0.00,0.0,WeatherDisplay:10.37,2013-09-17 07:58:00,
2013-09-17 02:59:00,62.1,60.4,30.10,SE,144,0.0,0.0,94,0.00,CLR,,0.00,0.0,WeatherDisplay:10.37,2013-09-17 07:59:00,
2013-09-17 03:00:00,62.1,60.4,30.10,SE,144,0.0,0.0,94,0.00,CLR,,0.00,0.0,WeatherDisplay:10.37,2013-09-17 08:00:00,
2013-09-17 03:01:00,62.1,60.4,30.09,SE,144,0.0,0.0,94,0.00,CLR,,0.00,0.0,WeatherDisplay:10.37,2013-09-17 08:01:00,
2013-09-17 03:02:00,62.1,60.4,30.09,SE,144,0.0,0.0,94,0.00,CLR,,0.00,0.0,WeatherDisplay:10.37,2013-09-17 08:02:00,
2013-09-17 03:04:00,62.1,60.1,30.09,SE,129,0.8,0.0,93,0.00,CLR,,0.00,0.0,WeatherDisplay:10.37,2013-09-17 08:04:00,
2013-09-17 03:05:00,62.1,60.1,30.09,SE,134,0.0,1.2,93,0.00,CLR,,0.00,0.0,WeatherDisplay:10.37,2013-09-17 08:05:00,
2013-09-17 03:06:00,62.1,60.1,30.09,SE,134,0.6,3.5,93,0.00,CLR,,0.00,0.0,WeatherDisplay:10.37,2013-09-17 08:06:00,
2013-09-17 03:07:00,62.1,60.1,30.10,SE,134,0.0,3.5,93,0.00,CLR,,0.00,0.0,WeatherDisplay:10.37,2013-09-17 08:07:00,
2013-09-17 03:09:00,62.1,60.1,30.10,SE,145,0.9,3.5,93,0.00,CLR,,0.00,0.0,WeatherDisplay:10.37,2013-09-17 08:09:00,
2013-09-17 03:10:00,62.1,60.1,30.10,SE,144,0.0,2.3,93,0.00,CLR,,0.00,0.0,WeatherDisplay:10.37,2013-09-17 08:10:00,
2013-09-17 03:11:00,62.1,60.1,30.09,ESE,105,0.3,2.3,93,0.00,CLR,,0.00,0.0,WeatherDisplay:10.37,2013-09-17 08:11:00,
2013-09-17 03:12:00,62.1,60.1,30.10,ESE,105,0.2,2.3,93,0.00,CLR,,0.00,0.0,WeatherDisplay:10.37,2013-09-17 08:12:00,
2013-09-17 03:14:00,62.1,60.1,30.10,NNE,15,0.5,3.5,93,0.00,CLR,,0.00,0.0,WeatherDisplay:10.37,2013-09-17 08:14:00,
2013-09-17 03:15:00,62.1,60.1,30.09,East,92,0.3,2.3,93,0.00,CLR,,0.00,0.0,WeatherDisplay:10.37,2013-09-17 08:15:00,
2013-09-17 03:16:00,62.2,60.2,30.09,NNW,348,0.2,2.3,93,0.00,CLR,,0.00,0.0,WeatherDisplay:10.37,2013-09-17 08:16:00,
2013-09-17 03:17:00,62.2,60.2,30.09,WSW,239,0.0,2.3,93,0.00,CLR,,0.00,0.0,WeatherDisplay:10.37,2013-09-17 08:17:00,
2013-09-17 03:20:00,62.2,60.2,30.09,SE,146,0.0,0.0,93,0.00,CLR,,0.00,0.0,WeatherDisplay:10.37,2013-09-17 08:20:00,
2013-09-17 03:21:00,62.2,60.2,30.09,ESE,122,0.0,3.0,93,0.00,CLR,,0.00,0.0,WeatherDisplay:10.37,2013-09-17 08:21:00,
2013-09-17 03:23:00,62.2,60.2,30.09,SE,146,0.3,3.5,93,0.00,CLR,,0.00,0.0,WeatherDisplay:10.37,2013-09-17 08:23:00,
2013-09-17 03:25:00,62.2,60.2,30.09,SE,135,0.3,3.5,93,0.00,CLR,,0.00,0.0,WeatherDisplay:10.37,2013-09-17 08:25:00,
2013-09-17 03:26:00,62.2,60.2,30.09,SE,145,0.0,3.0,93,0.00,CLR,,0.00,0.0,WeatherDisplay:10.37,2013-09-17 08:26:00,
2013-09-17 03:27:00,62.2,60.2,30.09,ESE,113,0.8,0.0,93,0.00,CLR,,0.00,0.0,WeatherDisplay:10.37,2013-09-17 08:27:00,
2013-09-17 03:28:00,62.2,60.2,30.09,ESE,113,0.0,0.0,93,0.00,CLR,,0.00,0.0,WeatherDisplay:10.37,2013-09-17 08:28:00,
2013-09-17 03:30:00,62.2,60.2,30.09,ESE,113,0.0,0.0,93,0.00,CLR,,0.00,0.0,WeatherDisplay:10.37,2013-09-17 08:30:00,
2013-09-17 03:31:00,62.2,60.2,30.09,ESE,113,0.0,0.0,93,0.00,CLR,,0.00,0.0,WeatherDisplay:10.37,2013-09-17 08:31:00,
2013-09-17 03:32:00,62.2,60.2,30.09,ESE,113,0.0,0.0,93,0.00,CLR,,0.00,0.0,WeatherDisplay:10.37,2013-09-17 08:32:00,
2013-09-17 03:33:00,62.2,60.2,30.09,ESE,113,0.0,0.0,93,0.00,CLR,,0.00,0.0,WeatherDisplay:10.37,2013-09-17 08:33:00,
2013-09-17 03:35:00,62.2,60.2,30.09,ESE,113,0.0,0.0,93,0.00,CLR,,0.00,0.0,WeatherDisplay:10.37,2013-09-17 08:35:00,
2013-09-17 03:36:00,62.2,60.2,30.09,ESE,113,0.1,1.0,93,0.00,CLR,,0.00,0.0,WeatherDisplay:10.37,2013-09-17 08:36:00,
2013-09-17 03:37:00,62.2,60.2,30.09,ENE,66,0.7,3.5,93,0.00,CLR,,0.00,0.0,WeatherDisplay:10.37,2013-09-17 08:37:00,
2013-09-17 03:38:00,62.2,60.2,30.09,North,11,0.0,1.2,93,0.00,CLR,,0.00,0.0,WeatherDisplay:10.37,2013-09-17 08:38:00,
2013-09-17 03:41:00,62.2,60.2,30.09,NNE,32,0.0,0.0,93,0.00,CLR,,0.00,0.0,WeatherDisplay:10.37,2013-09-17 08:41:00,
2013-09-17 03:42:00,62.2,60.2,30.08,NE,54,0.0,0.0,93,0.00,CLR,,0.00,0.0,WeatherDisplay:10.37,2013-09-17 08:42:00,
2013-09-17 03:43:00,62.2,60.2,30.08,NNE,27,0.0,0.0,93,0.00,CLR,,0.00,0.0,WeatherDisplay:10.37,2013-09-17 08:43:00,
2013-09-17 03:44:00,62.2,60.2,30.08,NNE,27,0.0,0.0,93,0.00,CLR,,0.00,0.0,WeatherDisplay:10.37,2013-09-17 08:44:00,
2013-09-17 03:46:00,62.2,60.2,30.08,ESE,102,0.1,1.2,93,0.00,CLR,,0.00,0.0,WeatherDisplay:10.37,2013-09-17 08:46:00,
2013-09-17 03:47:00,62.2,60.2,30.08,ESE,103,0.0,0.0,93,0.00,CLR,,0.00,0.0,WeatherDisplay:10.37,2013-09-17 08:47:00,
2013-09-17 03:48:00,62.2,60.2,30.08,ESE,103,0.0,0.0,93,0.00,CLR,,0.00,0.0,WeatherDisplay:10.37,2013-09-17 08:48:00,
2013-09-17 03:49:00,62.2,60.2,30.08,ESE,103,0.0,0.0,93,0.00,CLR,,0.00,0.0,WeatherDisplay:10.37,2013-09-17 08:49:00,
2013-09-17 03:51:00,62.2,60.2,30.08,ESE,103,0.0,0.0,93,0.00,CLR,,0.00,0.0,WeatherDisplay:10.37,2013-09-17 08:51:00,
2013-09-17 03:53:00,62.2,60.2,30.08,ESE,121,0.6,7.0,93,0.00,CLR,,0.00,0.0,WeatherDisplay:10.37,2013-09-17 08:53:00,
2013-09-17 03:54:00,62.2,60.2,30.08,NNW,339,1.2,6.9,93,0.00,CLR,,0.00,0.0,WeatherDisplay:10.37,2013-09-17 08:54:00,
2013-09-17 03:55:00,62.2,60.2,30.08,ESE,108,0.0,0.0,93,0.00,CLR,,0.00,0.0,WeatherDisplay:10.37,2013-09-17 08:55:00,
2013-09-17 03:56:00,62.2,60.5,30.08,ESE,108,0.0,0.0,94,0.00,CLR,,0.00,0.0,WeatherDisplay:10.37,2013-09-17 08:56:00,
2013-09-17 03:57:00,62.2,60.5,30.08,ESE,108,0.0,0.0,94,0.00,CLR,,0.00,0.0,WeatherDisplay:10.37,2013-09-17 08:57:00,
2013-09-17 03:58:00,62.2,60.5,30.08,ESE,108,0.0,0.0,94,0.00,CLR,,0.00,0.0,WeatherDisplay:10.37,2013-09-17 08:58:00,
2013-09-17 03:59:00,62.2,60.5,30.08,SE,129,0.1,2.3,94,0.00,CLR,,0.00,0.0,WeatherDisplay:10.37,2013-09-17 08:59:00,
2013-09-17 04:00:00,62.2,60.5,30.08,SE,129,0.0,2.3,94,0.00,CLR,,0.00,0.0,WeatherDisplay:10.37,2013-09-17 09:00:00,
2013-09-17 04:01:00,62.2,60.5,30.08,SE,132,0.2,1.2,94,0.00,CLR,,0.00,0.0,WeatherDisplay:10.37,2013-09-17 09:01:00,
2013-09-17 04:02:00,62.2,60.5,30.08,ESE,117,0.2,3.0,94,0.00,CLR,,0.00,0.0,WeatherDisplay:10.37,2013-09-17 09:02:00,
2013-09-17 04:03:00,62.2,60.5,30.08,ESE,117,0.4,3.5,94,0.00,CLR,,0.00,0.0,WeatherDisplay:10.37,2013-09-17 09:03:00,
2013-09-17 04:04:00,62.2,60.5,30.08,ESE,117,0.0,0.0,94,0.00,CLR,,0.00,0.0,WeatherDisplay:10.37,2013-09-17 09:04:00,
2013-09-17 04:05:00,62.2,60.5,30.08,ESE,117,0.0,0.0,94,0.00,CLR,,0.00,0.0,WeatherDisplay:10.37,2013-09-17 09:05:00,
2013-09-17 04:06:00,62.2,60.5,30.08,SSE,155,0.0,0.0,94,0.00,CLR,,0.00,0.0,WeatherDisplay:10.37,2013-09-17 09:06:00,
2013-09-17 04:08:00,62.2,60.5,30.08,SSW,194,0.0,0.0,94,0.00,CLR,,0.00,0.0,WeatherDisplay:10.37,2013-09-17 09:08:00,
2013-09-17 04:09:00,62.2,60.5,30.08,SSW,198,0.0,0.0,94,0.00,CLR,,0.00,0.0,WeatherDisplay:10.37,2013-09-17 09:09:00,
2013-09-17 04:10:00,62.2,60.5,30.08,SSW,198,0.0,0.0,94,0.00,CLR,,0.00,0.0,WeatherDisplay:10.37,2013-09-17 09:10:00,
2013-09-17 04:12:00,62.2,60.5,30.08,SSW,198,0.0,1.2,94,0.00,CLR,,0.00,0.0,WeatherDisplay:10.37,2013-09-17 09:12:00,
2013-09-17 04:14:00,62.2,60.5,30.08,SE,138,0.0,1.2,94,0.00,CLR,,0.00,0.0,WeatherDisplay:10.37,2013-09-17 09:14:00,
2013-09-17 04:15:00,62.2,60.5,30.08,SE,138,0.0,0.0,94,0.00,CLR,,0.00,0.0,WeatherDisplay:10.37,2013-09-17 09:15:00,
2013-09-17 04:17:00,62.1,60.4,30.08,SE,134,0.0,3.5,94,0.00,CLR,,0.00,0.0,WeatherDisplay:10.37,2013-09-17 09:17:00,
2013-09-17 04:19:00,62.1,60.4,30.08,ESE,121,0.0,0.0,94,0.00,CLR,,0.00,0.0,WeatherDisplay:10.37,2013-09-17 09:19:00,
2013-09-17 04:20:00,62.1,60.4,30.08,South,171,0.0,1.2,94,0.00,CLR,,0.00,0.0,WeatherDisplay:10.37,2013-09-17 09:20:00,
2013-09-17 04:22:00,62.1,60.4,30.08,South,171,0.0,0.0,94,0.00,CLR,,0.00,0.0,WeatherDisplay:10.37,2013-09-17 09:22:00,
2013-09-17 04:24:00,62.1,60.7,30.08,SSE,159,0.0,0.0,95,0.00,CLR,,0.00,0.0,WeatherDisplay:10.37,2013-09-17 09:24:00,
2013-09-17 04:25:00,62.1,60.7,30.08,SSE,159,0.0,1.2,95,0.00,CLR,,0.00,0.0,WeatherDisplay:10.37,2013-09-17 09:25:00,
2013-09-17 04:27:00,62.1,60.7,30.08,SSE,159,0.0,0.0,95,0.00,CLR,,0.00,0.0,WeatherDisplay:10.37,2013-09-17 09:27:00,
2013-09-17 04:28:00,62.1,60.7,30.08,SSE,159,0.0,0.0,95,0.00,CLR,,0.00,0.0,WeatherDisplay:10.37,2013-09-17 09:28:00,
2013-09-17 04:29:00,62.1,60.7,30.08,SSE,159,0.0,0.0,95,0.00,CLR,,0.00,0.0,WeatherDisplay:10.37,2013-09-17 09:29:00,
2013-09-17 04:30:00,62.1,60.7,30.08,SSE,159,0.0,0.0,95,0.00,CLR,,0.00,0.0,WeatherDisplay:10.37,2013-09-17 09:30:00,
2013-09-17 04:31:00,62.1,60.7,30.07,SSE,159,0.0,0.0,95,0.00,CLR,,0.00,0.0,WeatherDisplay:10.37,2013-09-17 09:31:00,
2013-09-17 04:32:00,62.1,60.7,30.07,SSE,159,0.0,0.0,95,0.00,CLR,,0.00,0.0,WeatherDisplay:10.37,2013-09-17 09:32:00,
2013-09-17 04:33:00,62.1,60.7,30.07,SSE,159,0.0,0.0,95,0.00,CLR,,0.00,0.0,WeatherDisplay:10.37,2013-09-17 09:33:00,
2013-09-17 04:34:00,62.1,60.7,30.07,SSE,159,0.0,0.0,95,0.00,CLR,,0.00,0.0,WeatherDisplay:10.37,2013-09-17 09:34:00,
2013-09-17 04:35:00,62.1,60.7,30.08,SSE,159,0.0,0.0,95,0.00,CLR,,0.00,0.0,WeatherDisplay:10.37,2013-09-17 09:35:00,
2013-09-17 04:36:00,62.1,60.7,30.08,SSE,159,0.0,0.0,95,0.00,CLR,,0.00,0.0,WeatherDisplay:10.37,2013-09-17 09:36:00,
2013-09-17 04:37:00,62.1,60.7,30.07,SSE,159,0.0,0.0,95,0.00,CLR,,0.00,0.0,WeatherDisplay:10.37,2013-09-17 09:37:00,
2013-09-17 04:38:00,62.1,60.7,30.07,North,360,0.0,0.0,95,0.00,CLR,,0.00,0.0,WeatherDisplay:10.37,2013-09-17 09:38:00,
2013-09-17 04:39:00,62.1,60.7,30.07,South,169,0.0,0.0,95,0.00,CLR,,0.00,0.0,WeatherDisplay:10.37,2013-09-17 09:39:00,
2013-09-17 04:40:00,62.1,60.7,30.07,South,169,0.0,0.0,95,0.00,CLR,,0.00,0.0,WeatherDisplay:10.37,2013-09-17 09:40:00,
2013-09-17 04:41:00,62.1,60.7,30.07,South,169,0.0,0.0,95,0.00,CLR,,0.00,0.0,WeatherDisplay:10.37,2013-09-17 09:41:00,
2013-09-17 04:42:00,62.1,60.7,30.07,WSW,250,0.3,3.5,95,0.00,CLR,,0.00,0.0,WeatherDisplay:10.37,2013-09-17 09:42:00,
2013-09-17 04:43:00,62.1,60.7,30.07,ESE,110,0.2,2.3,95,0.00,CLR,,0.00,0.0,WeatherDisplay:10.37,2013-09-17 09:43:00,
2013-09-17 04:44:00,62.1,60.7,30.07,ESE,111,0.5,2.3,95,0.00,CLR,,0.00,0.0,WeatherDisplay:10.37,2013-09-17 09:44:00,
2013-09-17 04:45:00,62.1,60.7,30.07,ESE,111,0.0,2.3,95,0.00,CLR,,0.00,0.0,WeatherDisplay:10.37,2013-09-17 09:45:00,
2013-09-17 04:46:00,62.1,60.7,30.07,ESE,111,0.0,0.0,95,0.00,CLR,,0.00,0.0,WeatherDisplay:10.37,2013-09-17 09:46:00,
2013-09-17 04:47:00,62.1,60.7,30.07,ESE,111,0.0,0.0,95,0.00,CLR,,0.00,0.0,WeatherDisplay:10.37,2013-09-17 09:47:00,
2013-09-17 04:48:00,62.1,60.7,30.07,ESE,111,0.0,0.0,95,0.00,CLR,,0.00,0.0,WeatherDisplay:10.37,2013-09-17 09:48:00,
2013-09-17 04:49:00,62.1,60.7,30.07,ESE,111,0.0,0.0,95,0.00,CLR,,0.00,0.0,WeatherDisplay:10.37,2013-09-17 09:49:00,
2013-09-17 04:50:00,62.1,60.7,30.07,ESE,111,0.0,0.0,95,0.00,CLR,,0.00,0.0,WeatherDisplay:10.37,2013-09-17 09:50:00,
2013-09-17 04:51:00,62.1,60.7,30.07,ESE,113,0.0,0.0,95,0.00,CLR,,0.00,0.0,WeatherDisplay:10.37,2013-09-17 09:51:00,
2013-09-17 04:52:00,62.1,60.7,30.07,ESE,113,0.0,0.0,95,0.00,CLR,,0.00,0.0,WeatherDisplay:10.37,2013-09-17 09:52:00,
2013-09-17 04:53:00,62.1,60.7,30.07,ESE,113,0.0,0.0,95,0.00,CLR,,0.00,0.0,WeatherDisplay:10.37,2013-09-17 09:53:00,
2013-09-17 04:55:00,62.1,60.7,30.06,ESE,113,0.0,0.0,95,0.00,CLR,,0.00,0.0,WeatherDisplay:10.37,2013-09-17 09:55:00,
2013-09-17 04:56:00,62.1,60.7,30.06,ESE,113,0.0,0.0,95,0.00,CLR,,0.00,0.0,WeatherDisplay:10.37,2013-09-17 09:56:00,
2013-09-17 04:58:00,62.1,60.7,30.06,ESE,113,0.0,0.0,95,0.00,CLR,,0.00,0.0,WeatherDisplay:10.37,2013-09-17 09:58:00,
2013-09-17 05:00:00,62.1,60.7,30.06,ESE,113,0.0,0.0,95,0.00,CLR,,0.00,0.0,WeatherDisplay:10.37,2013-09-17 10:00:00,
2013-09-17 05:01:00,62.1,60.7,30.06,ESE,121,0.0,0.0,95,0.00,CLR,,0.00,0.0,WeatherDisplay:10.37,2013-09-17 10:01:00,
2013-09-17 05:02:00,62.1,60.7,30.06,SE,126,0.0,0.0,95,0.00,CLR,,0.00,0.0,WeatherDisplay:10.37,2013-09-17 10:02:00,
2013-09-17 05:03:00,62.1,60.7,30.06,SE,126,0.0,0.0,95,0.00,CLR,,0.00,0.0,WeatherDisplay:10.37,2013-09-17 10:03:00,
2013-09-17 05:05:00,62.2,60.8,30.06,ESE,121,0.0,1.2,95,0.00,CLR,,0.00,0.0,WeatherDisplay:10.37,2013-09-17 10:05:00,
2013-09-17 05:06:00,62.2,60.8,30.06,ESE,121,0.0,0.0,95,0.00,CLR,,0.00,0.0,WeatherDisplay:10.37,2013-09-17 10:06:00,
2013-09-17 05:07:00,62.2,60.8,30.06,ESE,121,0.0,0.0,95,0.00,CLR,,0.00,0.0,WeatherDisplay:10.37,2013-09-17 10:07:00,
2013-09-17 05:08:00,62.2,60.8,30.07,ESE,121,0.0,0.0,95,0.00,CLR,,0.00,0.0,WeatherDisplay:10.37,2013-09-17 10:08:00,
2013-09-17 05:10:00,62.2,60.8,30.07,SE,146,0.0,0.0,95,0.00,CLR,,0.00,0.0,WeatherDisplay:10.37,2013-09-17 10:10:00,
2013-09-17 05:11:00,62.2,60.8,30.07,SE,146,0.0,0.0,95,0.00,CLR,,0.00,0.0,WeatherDisplay:10.37,2013-09-17 10:11:00,
2013-09-17 05:12:00,62.2,60.8,30.07,SE,146,0.0,0.0,95,0.00,CLR,,0.00,0.0,WeatherDisplay:10.37,2013-09-17 10:12:00,
2013-09-17 05:13:00,62.2,60.8,30.07,SSE,148,0.0,0.0,95,0.00,CLR,,0.00,0.0,WeatherDisplay:10.37,2013-09-17 10:13:00,
2013-09-17 05:14:00,62.2,60.8,30.07,ENE,64,0.1,0.0,95,0.00,CLR,,0.00,0.0,WeatherDisplay:10.37,2013-09-17 10:14:00,
2013-09-17 05:16:00,62.2,60.8,30.07,ESE,117,0.0,1.0,95,0.00,CLR,,0.00,0.0,WeatherDisplay:10.37,2013-09-17 10:16:00,
2013-09-17 05:17:00,62.3,60.8,30.07,ENE,64,0.0,0.0,95,0.00,CLR,,0.00,0.0,WeatherDisplay:10.37,2013-09-17 10:17:00,
2013-09-17 05:18:00,62.3,60.8,30.07,ENE,64,0.0,0.0,95,0.00,CLR,,0.00,0.0,WeatherDisplay:10.37,2013-09-17 10:18:00,
2013-09-17 05:20:00,62.3,60.8,30.07,ENE,64,0.0,0.0,95,0.00,CLR,,0.00,0.0,WeatherDisplay:10.37,2013-09-17 10:20:00,
2013-09-17 05:21:00,62.3,60.8,30.07,ENE,64,0.0,0.0,95,0.00,CLR,,0.00,0.0,WeatherDisplay:10.37,2013-09-17 10:21:00,
2013-09-17 05:22:00,62.3,60.8,30.06,ENE,61,0.0,0.0,95,0.00,CLR,,0.00,0.0,WeatherDisplay:10.37,2013-09-17 10:22:00,
2013-09-17 05:23:00,62.3,60.8,30.06,ENE,61,0.0,0.0,95,0.00,CLR,,0.00,0.0,WeatherDisplay:10.37,2013-09-17 10:23:00,
2013-09-17 05:25:00,62.3,60.8,30.07,ENE,61,0.0,0.0,95,0.00,CLR,,0.00,0.0,WeatherDisplay:10.37,2013-09-17 10:25:00,
2013-09-17 05:26:00,62.3,60.8,30.06,ESE,115,0.1,1.2,95,0.00,CLR,,0.00,0.0,WeatherDisplay:10.37,2013-09-17 10:26:00,
2013-09-17 05:27:00,62.3,60.8,30.06,SE,127,0.1,1.2,95,0.00,CLR,,0.00,0.0,WeatherDisplay:10.37,2013-09-17 10:27:00,
2013-09-17 05:28:00,62.3,60.8,30.06,SW,215,0.0,0.0,95,0.00,CLR,,0.00,0.0,WeatherDisplay:10.37,2013-09-17 10:28:00,
2013-09-17 05:30:00,62.3,60.8,30.07,West,266,0.0,0.0,95,0.00,CLR,,0.00,0.0,WeatherDisplay:10.37,2013-09-17 10:30:00,
2013-09-17 05:31:00,62.3,60.8,30.07,South,169,0.0,0.0,95,0.00,CLR,,0.00,0.0,WeatherDisplay:10.37,2013-09-17 10:31:00,
2013-09-17 05:32:00,62.3,60.8,30.07,ESE,117,0.2,1.2,95,0.00,CLR,,0.00,0.0,WeatherDisplay:10.37,2013-09-17 10:32:00,
2013-09-17 05:33:00,62.3,60.8,30.07,SE,130,1.2,3.5,95,0.00,CLR,,0.00,0.0,WeatherDisplay:10.37,2013-09-17 10:33:00,
2013-09-17 05:35:00,62.3,60.8,30.06,SE,143,0.0,1.2,95,0.00,CLR,,0.00,0.0,WeatherDisplay:10.37,2013-09-17 10:35:00,
2013-09-17 05:37:00,62.3,60.8,30.06,SE,141,0.2,1.2,95,0.00,CLR,,0.00,0.0,WeatherDisplay:10.37,2013-09-17 10:37:00,
2013-09-17 05:38:00,62.3,60.8,30.06,SE,124,0.1,1.2,95,0.00,CLR,,0.00,0.0,WeatherDisplay:10.37,2013-09-17 10:38:00,
2013-09-17 05:41:00,62.3,60.8,30.06,SE,124,0.0,0.0,95,0.00,CLR,,0.00,0.0,WeatherDisplay:10.37,2013-09-17 10:41:00,
2013-09-17 05:42:00,62.3,60.8,30.06,ESE,116,0.1,2.0,95,0.00,CLR,,0.00,0.0,WeatherDisplay:10.37,2013-09-17 10:42:00,
2013-09-17 05:43:00,62.3,60.8,30.06,ESE,113,0.4,6.9,95,0.00,CLR,,0.00,0.0,WeatherDisplay:10.37,2013-09-17 10:43:00,
2013-09-17 05:46:00,62.4,60.9,30.06,ESE,121,0.0,0.0,95,0.00,CLR,,0.00,0.0,WeatherDisplay:10.37,2013-09-17 10:46:00,
2013-09-17 05:47:00,62.3,60.8,30.06,ESE,121,0.0,0.0,95,0.00,CLR,,0.00,0.0,WeatherDisplay:10.37,2013-09-17 10:47:00,
2013-09-17 05:48:00,62.3,60.8,30.06,SE,126,0.2,3.5,95,0.00,CLR,,0.00,0.0,WeatherDisplay:10.37,2013-09-17 10:48:00,
2013-09-17 05:49:00,62.3,60.8,30.06,SE,126,0.2,3.5,95,0.00,CLR,,0.00,0.0,WeatherDisplay:10.37,2013-09-17 10:49:00,
2013-09-17 05:50:00,62.3,60.8,30.06,SSE,149,0.0,3.5,95,0.00,CLR,,0.00,0.0,WeatherDisplay:10.37,2013-09-17 10:50:00,
2013-09-17 05:52:00,62.3,60.8,30.06,SE,138,0.1,1.2,95,0.00,CLR,,0.00,0.0,WeatherDisplay:10.37,2013-09-17 10:52:00,
2013-09-17 05:53:00,62.3,60.8,30.06,SE,135,0.1,1.2,95,0.00,CLR,,0.00,0.0,WeatherDisplay:10.37,2013-09-17 10:53:00,
2013-09-17 05:54:00,62.3,60.8,30.06,SE,129,0.4,1.2,95,0.00,CLR,,0.00,0.0,WeatherDisplay:10.37,2013-09-17 10:54:00,
2013-09-17 05:55:00,62.3,60.8,30.06,SE,129,0.0,0.0,95,0.00,CLR,,0.00,0.0,WeatherDisplay:10.37,2013-09-17 10:55:00,
2013-09-17 05:58:00,62.4,60.9,30.06,SE,129,0.0,0.0,95,0.00,CLR,,0.00,0.0,WeatherDisplay:10.37,2013-09-17 10:58:00,
2013-09-17 05:59:00,62.3,60.8,30.06,SE,132,0.0,3.5,95,0.00,CLR,,0.00,0.0,WeatherDisplay:10.37,2013-09-17 10:59:00,
2013-09-17 06:00:00,62.4,60.9,30.06,SE,132,0.0,0.0,95,0.00,CLR,,0.00,0.0,WeatherDisplay:10.37,2013-09-17 11:00:00,
2013-09-17 06:03:00,62.4,60.9,30.06,ESE,117,0.0,0.0,95,0.00,CLR,,0.00,0.0,WeatherDisplay:10.37,2013-09-17 11:03:00,
2013-09-17 06:04:00,62.4,60.9,30.06,NNE,28,0.1,0.0,95,0.00,CLR,,0.00,0.0,WeatherDisplay:10.37,2013-09-17 11:04:00,
2013-09-17 06:05:00,62.4,60.9,30.06,NE,36,0.1,1.2,95,0.00,CLR,,0.00,0.0,WeatherDisplay:10.37,2013-09-17 11:05:00,
2013-09-17 06:09:00,62.4,60.9,30.06,NE,36,0.0,0.0,95,0.00,CLR,,0.00,0.0,WeatherDisplay:10.37,2013-09-17 11:09:00,
2013-09-17 06:10:00,62.4,60.9,30.06,NE,36,0.0,0.0,95,0.00,CLR,,0.00,0.0,WeatherDisplay:10.37,2013-09-17 11:10:00,
2013-09-17 06:11:00,62.4,60.9,30.06,SSE,153,0.0,0.0,95,0.00,CLR,,0.00,0.0,WeatherDisplay:10.37,2013-09-17 11:11:00,
2013-09-17 06:14:00,62.4,60.9,30.06,SSE,153,0.0,0.0,95,0.00,CLR,,0.00,0.0,WeatherDisplay:10.37,2013-09-17 11:14:00,
2013-09-17 06:15:00,62.4,60.9,30.06,SE,126,0.7,3.0,95,0.00,CLR,,0.00,0.0,WeatherDisplay:10.37,2013-09-17 11:15:00,
2013-09-17 06:16:00,62.4,60.9,30.06,SE,128,0.5,4.6,95,0.00,CLR,,0.00,0.0,WeatherDisplay:10.37,2013-09-17 11:16:00,
2013-09-17 06:19:00,62.4,60.9,30.06,NE,47,0.2,1.2,95,0.00,CLR,,0.00,0.0,WeatherDisplay:10.37,2013-09-17 11:19:00,
2013-09-17 06:20:00,62.4,60.9,30.06,NE,47,0.2,1.2,95,0.00,CLR,,0.00,0.0,WeatherDisplay:10.37,2013-09-17 11:20:00,
2013-09-17 06:25:00,62.5,61.0,30.06,ESE,120,0.0,1.2,95,0.00,CLR,,0.00,0.0,WeatherDisplay:10.37,2013-09-17 11:25:00,
2013-09-17 06:30:00,62.5,61.0,30.06,ESE,121,0.3,0.0,95,0.00,CLR,,0.00,0.0,WeatherDisplay:10.37,2013-09-17 11:30:00,
2013-09-17 06:31:00,62.5,61.0,30.06,ESE,121,0.3,0.0,95,0.00,CLR,,0.00,0.0,WeatherDisplay:10.37,2013-09-17 11:31:00,
2013-09-17 06:35:00,62.5,61.0,30.06,NE,44,0.0,0.0,95,0.00,CLR,,0.00,0.0,WeatherDisplay:10.37,2013-09-17 11:35:00,
2013-09-17 06:36:00,62.5,61.0,30.06,NE,44,0.0,0.0,95,0.00,CLR,,0.00,0.0,WeatherDisplay:10.37,2013-09-17 11:36:00,
2013-09-17 06:40:00,62.5,61.3,30.05,SE,126,0.0,0.0,96,0.00,CLR,,0.00,0.0,WeatherDisplay:10.37,2013-09-17 11:40:00,
2013-09-17 06:41:00,62.5,61.3,30.05,SE,126,0.0,0.0,96,0.00,CLR,,0.00,0.0,WeatherDisplay:10.37,2013-09-17 11:41:00,
2013-09-17 06:45:00,62.5,61.3,30.06,SE,129,0.0,0.0,96,0.01,RA,,0.01,0.0,WeatherDisplay:10.37,2013-09-17 11:45:00,
2013-09-17 06:46:00,62.5,61.3,30.06,SE,129,0.0,0.0,96,0.01,RA,,0.01,0.0,WeatherDisplay:10.37,2013-09-17 11:46:00,
2013-09-17 06:50:00,62.5,61.3,30.06,WSW,256,0.0,1.2,96,0.01,RA,,0.01,0.0,WeatherDisplay:10.37,2013-09-17 11:50:00,
2013-09-17 06:51:00,62.5,61.3,30.06,WSW,256,0.0,0.0,96,0.01,RA,,0.01,0.0,WeatherDisplay:10.37,2013-09-17 11:51:00,
2013-09-17 06:52:00,62.5,61.3,30.06,WSW,256,0.0,0.0,96,0.01,RA,,0.01,0.0,WeatherDisplay:10.37,2013-09-17 11:52:00,
2013-09-17 06:56:00,62.5,61.3,30.06,WSW,256,0.0,0.0,96,0.01,,,0.01,0.0,WeatherDisplay:10.37,2013-09-17 11:56:00,
2013-09-17 06:57:00,62.5,61.3,30.06,NE,49,0.1,0.0,96,0.01,CLR,,0.01,0.0,WeatherDisplay:10.37,2013-09-17 11:57:00,
2013-09-17 07:01:00,62.5,61.3,30.06,SE,124,0.0,1.0,96,0.01,CLR,,0.01,0.0,WeatherDisplay:10.37,2013-09-17 12:01:00,
2013-09-17 07:02:00,62.4,61.2,30.06,SE,124,0.0,0.0,96,0.01,CLR,,0.01,0.0,WeatherDisplay:10.37,2013-09-17 12:02:00,
2013-09-17 07:06:00,62.4,61.2,30.06,SE,126,0.0,0.0,96,0.01,CLR,,0.01,0.0,WeatherDisplay:10.37,2013-09-17 12:06:00,
2013-09-17 07:07:00,62.5,61.3,30.06,SSE,151,0.0,0.0,96,0.01,CLR,,0.01,0.0,WeatherDisplay:10.37,2013-09-17 12:07:00,
2013-09-17 07:11:00,62.5,61.3,30.07,SSE,154,0.0,0.0,96,0.01,CLR,,0.01,5.0,WeatherDisplay:10.37,2013-09-17 12:11:00,
2013-09-17 07:12:00,62.5,61.3,30.07,SSE,152,0.0,0.0,96,0.01,CLR,,0.01,5.0,WeatherDisplay:10.37,2013-09-17 12:12:00,
2013-09-17 07:14:00,62.5,61.6,30.07,SSE,152,0.0,0.0,97,0.01,CLR,,0.01,7.0,WeatherDisplay:10.37,2013-09-17 12:14:00,
2013-09-17 07:16:00,62.5,61.6,30.07,SSE,152,0.0,0.0,97,0.01,CLR,,0.01,9.0,WeatherDisplay:10.37,2013-09-17 12:16:00,
2013-09-17 07:17:00,62.5,61.6,30.07,SE,129,0.0,0.0,97,0.01,CLR,,0.01,11.0,WeatherDisplay:10.37,2013-09-17 12:17:00,
2013-09-17 07:18:00,62.5,61.6,30.07,SE,129,0.0,0.0,97,0.01,CLR,,0.01,11.0,WeatherDisplay:10.37,2013-09-17 12:18:00,
2013-09-17 07:19:00,62.5,61.6,30.07,SE,129,0.0,0.0,97,0.01,CLR,,0.01,9.0,WeatherDisplay:10.37,2013-09-17 12:19:00,
2013-09-17 07:21:00,62.5,61.6,30.07,SE,129,0.0,0.0,97,0.01,CLR,,0.01,11.0,WeatherDisplay:10.37,2013-09-17 12:21:00,
2013-09-17 07:23:00,62.6,61.7,30.07,SE,129,0.0,0.0,97,0.01,CLR,,0.01,9.0,WeatherDisplay:10.37,2013-09-17 12:23:00,
2013-09-17 07:25:00,62.5,61.6,30.07,SE,129,0.0,0.0,97,0.01,CLR,,0.01,11.0,WeatherDisplay:10.37,2013-09-17 12:25:00,
2013-09-17 07:26:00,62.5,61.6,30.07,SE,129,0.0,0.0,97,0.01,CLR,,0.01,11.0,WeatherDisplay:10.37,2013-09-17 12:26:00,
2013-09-17 07:28:00,62.6,61.7,30.07,SE,126,0.2,2.3,97,0.01,CLR,,0.01,11.0,WeatherDisplay:10.37,2013-09-17 12:28:00,
2013-09-17 07:30:00,62.6,61.7,30.08,SE,126,0.0,0.0,97,0.01,CLR,,0.01,9.0,WeatherDisplay:10.37,2013-09-17 12:30:00,
2013-09-17 07:31:00,62.6,61.7,30.08,SE,132,0.3,0.0,97,0.01,CLR,,0.01,9.0,WeatherDisplay:10.37,2013-09-17 12:31:00,
2013-09-17 07:32:00,62.6,61.7,30.08,SE,131,0.3,2.3,97,0.01,CLR,,0.01,9.0,WeatherDisplay:10.37,2013-09-17 12:32:00,
2013-09-17 07:33:00,62.6,61.7,30.08,SE,131,0.0,0.0,97,0.01,CLR,,0.01,7.0,WeatherDisplay:10.37,2013-09-17 12:33:00,
2013-09-17 07:35:00,62.6,61.7,30.08,SE,134,0.0,0.0,97,0.01,CLR,,0.01,7.0,WeatherDisplay:10.37,2013-09-17 12:35:00,
2013-09-17 07:37:00,62.6,61.7,30.08,SE,134,0.0,0.0,97,0.01,CLR,,0.01,7.0,WeatherDisplay:10.37,2013-09-17 12:37:00,
2013-09-17 07:38:00,62.6,61.7,30.08,SE,134,0.0,0.0,97,0.01,CLR,,0.01,5.0,WeatherDisplay:10.37,2013-09-17 12:38:00,
2013-09-17 07:39:00,62.6,61.7,30.08,SE,134,0.0,0.0,97,0.01,CLR,,0.01,5.0,WeatherDisplay:10.37,2013-09-17 12:39:00,
2013-09-17 07:41:00,62.6,61.7,30.08,SE,134,0.0,0.0,97,0.01,CLR,,0.01,5.0,WeatherDisplay:10.37,2013-09-17 12:41:00,
2013-09-17 07:42:00,62.7,61.8,30.08,SE,134,0.0,0.0,97,0.01,CLR,,0.01,0.0,WeatherDisplay:10.37,2013-09-17 12:42:00,
2013-09-17 07:43:00,62.7,61.8,30.09,SE,134,0.0,0.0,97,0.01,CLR,,0.01,0.0,WeatherDisplay:10.37,2013-09-17 12:43:00,
2013-09-17 07:44:00,62.7,61.8,30.09,SE,134,0.0,0.0,97,0.01,CLR,,0.01,0.0,WeatherDisplay:10.37,2013-09-17 12:44:00,
2013-09-17 07:46:00,62.7,61.8,30.09,SE,134,0.0,0.0,97,0.00,CLR,,0.01,0.0,WeatherDisplay:10.37,2013-09-17 12:46:00,
2013-09-17 07:47:00,62.7,61.8,30.10,SE,134,0.0,0.0,97,0.00,CLR,,0.01,0.0,WeatherDisplay:10.37,2013-09-17 12:47:00,
2013-09-17 07:49:00,62.7,61.8,30.10,SSW,200,0.0,0.0,97,0.00,CLR,,0.01,0.0,WeatherDisplay:10.37,2013-09-17 12:49:00,
2013-09-17 07:51:00,62.8,61.9,30.11,SW,233,0.0,0.0,97,0.00,CLR,,0.01,0.0,WeatherDisplay:10.37,2013-09-17 12:51:00,
2013-09-17 07:52:00,62.8,61.9,30.11,SW,233,0.0,0.0,97,0.00,CLR,,0.01,0.0,WeatherDisplay:10.37,2013-09-17 12:52:00,
2013-09-17 07:54:00,62.8,61.9,30.11,SSW,212,0.0,0.0,97,0.00,CLR,,0.01,0.0,WeatherDisplay:10.37,2013-09-17 12:54:00,
2013-09-17 07:57:00,62.8,61.9,30.11,SSW,192,0.0,0.0,97,0.00,CLR,,0.01,0.0,WeatherDisplay:10.37,2013-09-17 12:57:00,
2013-09-17 07:59:00,62.8,61.9,30.10,East,98,0.2,0.0,97,0.00,CLR,,0.01,0.0,WeatherDisplay:10.37,2013-09-17 12:59:00,
2013-09-17 08:00:00,62.8,61.9,30.10,ESE,119,0.3,3.0,97,0.00,CLR,,0.01,0.0,WeatherDisplay:10.37,2013-09-17 13:00:00,
2013-09-17 08:02:00,62.9,62.0,30.10,ESE,103,1.0,3.5,97,0.01,RA,,0.02,0.0,WeatherDisplay:10.37,2013-09-17 13:02:00,
2013-09-17 08:03:00,62.9,62.0,30.09,ESE,120,0.2,3.5,97,0.01,RA,,0.02,0.0,WeatherDisplay:10.37,2013-09-17 13:03:00,
2013-09-17 08:05:00,62.9,62.0,30.10,ESE,102,0.1,1.2,97,0.01,RA,,0.02,0.0,WeatherDisplay:10.37,2013-09-17 13:05:00,
2013-09-17 08:07:00,62.9,62.0,30.10,ESE,102,0.0,0.0,97,0.03,RA,,0.04,0.0,WeatherDisplay:10.37,2013-09-17 13:07:00,
2013-09-17 08:08:00,62.9,62.0,30.10,ESE,102,0.0,0.0,97,0.03,RA,,0.05,0.0,WeatherDisplay:10.37,2013-09-17 13:08:00,
2013-09-17 08:10:00,62.9,62.0,30.09,ESE,102,0.0,0.0,97,0.06,RA,,0.08,0.0,WeatherDisplay:10.37,2013-09-17 13:10:00,
2013-09-17 08:12:00,62.9,62.0,30.09,ESE,102,0.0,0.0,97,0.08,RA,,0.09,0.0,WeatherDisplay:10.37,2013-09-17 13:12:00,
2013-09-17 08:13:00,62.9,62.0,30.09,ESE,102,0.0,1.2,97,0.09,RA,,0.10,0.0,WeatherDisplay:10.37,2013-09-17 13:13:00,
2013-09-17 08:15:00,62.9,62.0,30.09,ESE,110,0.4,2.3,97,0.10,RA,,0.11,0.0,WeatherDisplay:10.37,2013-09-17 13:15:00,
2013-09-17 08:17:00,62.9,62.0,30.09,ESE,113,0.6,2.3,97,0.12,RA,,0.14,0.0,WeatherDisplay:10.37,2013-09-17 13:17:00,
2013-09-17 08:18:00,62.9,62.0,30.09,ESE,122,0.3,3.5,97,0.14,RA,,0.15,0.0,WeatherDisplay:10.37,2013-09-17 13:18:00,
2013-09-17 08:21:00,62.8,61.9,30.09,ESE,122,0.0,1.2,97,0.17,RA,,0.18,0.0,WeatherDisplay:10.37,2013-09-17 13:21:00,
2013-09-17 08:22:00,62.8,61.9,30.09,ESE,122,0.0,0.0,97,0.18,RA,,0.19,0.0,WeatherDisplay:10.37,2013-09-17 13:22:00,
2013-09-17 08:23:00,62.8,61.9,30.09,ESE,122,0.0,0.0,97,0.18,RA,,0.19,0.0,WeatherDisplay:10.37,2013-09-17 13:23:00,
2013-09-17 08:26:00,62.8,61.9,30.09,ESE,115,0.4,3.5,97,0.20,RA,,0.21,5.0,WeatherDisplay:10.37,2013-09-17 13:26:00,
2013-09-17 08:27:00,62.8,61.9,30.08,ESE,115,0.0,3.5,97,0.20,RA,,0.22,5.0,WeatherDisplay:10.37,2013-09-17 13:27:00,
2013-09-17 08:28:00,62.8,61.9,30.08,ESE,115,0.0,1.2,97,0.21,RA,,0.22,5.0,WeatherDisplay:10.37,2013-09-17 13:28:00,
2013-09-17 08:29:00,62.8,61.9,30.08,ESE,115,0.0,1.2,97,0.21,RA,,0.22,5.0,WeatherDisplay:10.37,2013-09-17 13:29:00,
2013-09-17 08:31:00,62.8,61.9,30.08,ESE,115,0.0,0.0,97,0.22,RA,,0.23,5.0,WeatherDisplay:10.37,2013-09-17 13:31:00,
2013-09-17 08:33:00,62.8,61.9,30.08,ESE,115,0.0,0.0,97,0.22,RA,,0.23,5.0,WeatherDisplay:10.37,2013-09-17 13:33:00,
2013-09-17 08:34:00,62.8,62.2,30.09,ESE,115,0.0,0.0,98,0.22,RA,,0.24,5.0,WeatherDisplay:10.37,2013-09-17 13:34:00,
2013-09-17 08:36:00,62.8,62.2,30.09,ESE,115,0.0,0.0,98,0.23,RA,,0.24,5.0,WeatherDisplay:10.37,2013-09-17 13:36:00,
2013-09-17 08:38:00,62.8,62.2,30.09,ESE,115,0.0,0.0,98,0.24,RA,,0.25,7.0,WeatherDisplay:10.37,2013-09-17 13:38:00,
2013-09-17 08:39:00,62.8,62.2,30.09,ESE,115,0.0,0.0,98,0.24,RA,,0.25,7.0,WeatherDisplay:10.37,2013-09-17 13:39:00,
2013-09-17 08:40:00,62.8,62.2,30.08,ESE,115,0.0,0.0,98,0.24,RA,,0.25,7.0,WeatherDisplay:10.37,2013-09-17 13:40:00,
2013-09-17 08:41:00,62.8,62.2,30.09,ESE,115,0.0,0.0,98,0.24,RA,,0.26,7.0,WeatherDisplay:10.37,2013-09-17 13:41:00,
2013-09-17 08:42:00,62.8,62.2,30.09,ESE,115,0.0,0.0,98,0.24,RA,,0.26,7.0,WeatherDisplay:10.37,2013-09-17 13:42:00,
2013-09-17 08:43:00,62.8,62.2,30.09,ESE,115,0.0,0.0,98,0.25,RA,,0.26,7.0,WeatherDisplay:10.37,2013-09-17 13:43:00,
2013-09-17 08:44:00,62.8,62.2,30.09,ESE,115,0.0,0.0,98,0.25,RA,,0.27,7.0,WeatherDisplay:10.37,2013-09-17 13:44:00,
2013-09-17 08:45:00,62.8,62.2,30.09,ESE,115,0.0,0.0,98,0.26,RA,,0.27,7.0,WeatherDisplay:10.37,2013-09-17 13:45:00,
2013-09-17 08:47:00,62.8,62.2,30.09,ESE,115,0.0,0.0,98,0.26,RA,,0.27,7.0,WeatherDisplay:10.37,2013-09-17 13:47:00,
2013-09-17 08:48:00,62.8,62.2,30.09,ESE,115,0.0,0.0,98,0.26,RA,,0.28,7.0,WeatherDisplay:10.37,2013-09-17 13:48:00,
2013-09-17 08:49:00,62.8,62.2,30.09,ESE,115,0.0,0.0,98,0.27,RA,,0.28,7.0,WeatherDisplay:10.37,2013-09-17 13:49:00,
2013-09-17 08:50:00,62.8,62.2,30.09,ESE,115,0.0,0.0,98,0.27,RA,,0.29,7.0,WeatherDisplay:10.37,2013-09-17 13:50:00,
2013-09-17 08:52:00,62.9,62.3,30.08,ESE,115,0.0,0.0,98,0.28,RA,,0.29,5.0,WeatherDisplay:10.37,2013-09-17 13:52:00,
2013-09-17 08:53:00,62.8,62.2,30.08,ESE,115,0.0,0.0,98,0.28,RA,,0.30,5.0,WeatherDisplay:10.37,2013-09-17 13:53:00,
2013-09-17 08:54:00,62.9,62.3,30.09,ESE,115,0.0,0.0,98,0.29,RA,,0.30,5.0,WeatherDisplay:10.37,2013-09-17 13:54:00,
2013-09-17 08:56:00,62.8,62.2,30.09,ESE,114,0.0,0.0,98,0.30,RA,,0.31,7.0,WeatherDisplay:10.37,2013-09-17 13:56:00,
2013-09-17 08:58:00,62.8,62.2,30.09,ESE,114,0.0,0.0,98,0.31,RA,,0.32,7.0,WeatherDisplay:10.37,2013-09-17 13:58:00,
2013-09-17 08:59:00,62.8,62.2,30.08,ESE,114,0.0,0.0,98,0.32,RA,,0.33,7.0,WeatherDisplay:10.37,2013-09-17 13:59:00,
2013-09-17 09:01:00,62.8,62.2,30.08,ESE,114,0.0,0.0,98,0.01,RA,,0.34,7.0,WeatherDisplay:10.37,2013-09-17 14:01:00,
2013-09-17 09:03:00,62.8,62.2,30.09,ESE,114,0.0,0.0,98,0.32,RA,,0.34,9.0,WeatherDisplay:10.37,2013-09-17 14:03:00,
2013-09-17 09:04:00,62.9,62.3,30.09,ESE,114,0.0,0.0,98,0.33,RA,,0.35,9.0,WeatherDisplay:10.37,2013-09-17 14:04:00,
2013-09-17 09:06:00,62.8,62.2,30.09,ESE,114,0.0,0.0,98,0.32,RA,,0.35,9.0,WeatherDisplay:10.37,2013-09-17 14:06:00,
2013-09-17 09:08:00,62.8,62.2,30.09,ESE,114,0.0,0.0,98,0.31,RA,,0.36,11.0,WeatherDisplay:10.37,2013-09-17 14:08:00,
2013-09-17 09:09:00,62.9,62.3,30.09,ESE,114,0.0,0.0,98,0.30,RA,,0.36,11.0,WeatherDisplay:10.37,2013-09-17 14:09:00,
2013-09-17 09:10:00,62.9,62.3,30.09,ESE,114,0.0,0.0,98,0.29,RA,,0.36,11.0,WeatherDisplay:10.37,2013-09-17 14:10:00,
2013-09-17 09:11:00,62.9,62.3,30.09,ESE,114,0.0,0.0,98,0.29,RA,,0.36,11.0,WeatherDisplay:10.37,2013-09-17 14:11:00,
2013-09-17 09:13:00,62.9,62.3,30.09,ESE,114,0.0,0.0,98,0.27,RA,,0.37,11.0,WeatherDisplay:10.37,2013-09-17 14:13:00,
2013-09-17 09:14:00,62.9,62.3,30.09,ESE,114,0.0,0.0,98,0.27,RA,,0.37,11.0,WeatherDisplay:10.37,2013-09-17 14:14:00,
2013-09-17 09:15:00,62.9,62.3,30.09,ESE,114,0.0,0.0,98,0.26,RA,,0.37,9.0,WeatherDisplay:10.37,2013-09-17 14:15:00,
2013-09-17 09:16:00,62.9,62.3,30.09,ESE,114,0.0,0.0,98,0.25,RA,,0.37,9.0,WeatherDisplay:10.37,2013-09-17 14:16:00,
2013-09-17 09:17:00,62.9,62.3,30.09,ESE,114,0.0,0.0,98,0.24,RA,,0.37,9.0,WeatherDisplay:10.37,2013-09-17 14:17:00,
2013-09-17 09:18:00,62.9,62.3,30.09,ESE,114,0.0,0.0,98,0.23,RA,,0.38,9.0,WeatherDisplay:10.37,2013-09-17 14:18:00,
2013-09-17 09:20:00,62.9,62.3,30.09,ESE,114,0.0,0.0,98,0.20,RA,,0.38,9.0,WeatherDisplay:10.37,2013-09-17 14:20:00,
2013-09-17 09:21:00,62.9,62.3,30.10,ESE,114,0.0,0.0,98,0.20,RA,,0.39,9.0,WeatherDisplay:10.37,2013-09-17 14:21:00,
2013-09-17 09:22:00,62.9,62.3,30.10,ESE,114,0.0,0.0,98,0.20,RA,,0.39,9.0,WeatherDisplay:10.37,2013-09-17 14:22:00,
2013-09-17 09:24:00,62.9,62.3,30.09,ESE,114,0.0,0.0,98,0.19,RA,,0.39,7.0,WeatherDisplay:10.37,2013-09-17 14:24:00,
2013-09-17 09:25:00,62.9,62.3,30.09,ESE,114,0.0,0.0,98,0.20,RA,,0.40,7.0,WeatherDisplay:10.37,2013-09-17 14:25:00,
2013-09-17 09:27:00,62.9,62.3,30.09,ESE,114,0.0,0.0,98,0.20,RA,,0.41,7.0,WeatherDisplay:10.37,2013-09-17 14:27:00,
2013-09-17 09:29:00,62.9,62.3,30.09,ESE,114,0.0,0.0,98,0.19,RA,,0.42,7.0,WeatherDisplay:10.37,2013-09-17 14:29:00,
2013-09-17 09:30:00,63.0,62.4,30.09,ESE,114,0.0,0.0,98,0.19,RA,,0.42,7.0,WeatherDisplay:10.37,2013-09-17 14:30:00,
2013-09-17 09:32:00,63.0,62.4,30.09,ESE,114,0.0,0.0,98,0.19,RA,,0.42,9.0,WeatherDisplay:10.37,2013-09-17 14:32:00,
2013-09-17 09:33:00,63.0,62.4,30.09,ESE,114,0.0,0.0,98,0.19,RA,,0.42,9.0,WeatherDisplay:10.37,2013-09-17 14:33:00,
2013-09-17 09:34:00,63.0,62.4,30.09,ESE,114,0.0,0.0,98,0.19,RA,,0.43,9.0,WeatherDisplay:10.37,2013-09-17 14:34:00,
2013-09-17 09:35:00,63.0,62.4,30.09,ESE,114,0.0,0.0,98,0.19,RA,,0.43,9.0,WeatherDisplay:10.37,2013-09-17 14:35:00,
2013-09-17 09:38:00,63.0,62.4,30.09,ESE,114,0.0,0.0,98,0.19,RA,,0.43,11.0,WeatherDisplay:10.37,2013-09-17 14:38:00,
2013-09-17 09:40:00,63.0,62.4,30.09,ESE,114,0.0,0.0,98,0.19,RA,,0.44,12.0,WeatherDisplay:10.37,2013-09-17 14:40:00,
2013-09-17 09:41:00,63.0,62.4,30.09,ESE,114,0.0,0.0,98,0.19,RA,,0.44,12.0,WeatherDisplay:10.37,2013-09-17 14:41:00,
2013-09-17 09:43:00,63.0,62.4,30.09,ESE,114,0.0,0.0,98,0.18,RA,,0.44,12.0,WeatherDisplay:10.37,2013-09-17 14:43:00,
2013-09-17 09:45:00,63.0,62.4,30.09,ESE,114,0.0,0.0,98,0.17,RA,,0.44,14.0,WeatherDisplay:10.37,2013-09-17 14:45:00,
2013-09-17 09:46:00,63.0,62.4,30.09,ESE,114,0.0,0.0,98,0.17,RA,,0.45,14.0,WeatherDisplay:10.37,2013-09-17 14:46:00,
2013-09-17 09:48:00,63.0,62.4,30.08,ESE,114,0.0,0.0,98,0.17,RA,,0.45,12.0,WeatherDisplay:10.37,2013-09-17 14:48:00,
2013-09-17 09:50:00,63.0,62.4,30.08,ESE,114,0.0,1.2,98,0.17,RA,,0.45,12.0,WeatherDisplay:10.37,2013-09-17 14:50:00,
2013-09-17 09:51:00,63.0,62.4,30.08,ESE,114,0.0,0.0,98,0.16,RA,,0.45,12.0,WeatherDisplay:10.37,2013-09-17 14:51:00,
2013-09-17 09:52:00,63.0,62.4,30.08,ESE,114,0.0,0.0,98,0.16,RA,,0.45,11.0,WeatherDisplay:10.37,2013-09-17 14:52:00,
2013-09-17 09:53:00,63.0,62.4,30.08,ESE,114,0.0,0.0,98,0.16,RA,,0.46,11.0,WeatherDisplay:10.37,2013-09-17 14:53:00,
2013-09-17 09:54:00,63.0,62.4,30.08,ESE,114,0.0,0.0,98,0.16,RA,,0.46,11.0,WeatherDisplay:10.37,2013-09-17 14:54:00,
2013-09-17 09:55:00,63.0,62.4,30.08,ESE,114,0.0,0.0,98,0.15,RA,,0.46,11.0,WeatherDisplay:10.37,2013-09-17 14:55:00,
2013-09-17 09:56:00,63.0,62.4,30.08,SE,146,0.0,0.0,98,0.15,RA,,0.47,12.0,WeatherDisplay:10.37,2013-09-17 14:56:00,
2013-09-17 09:57:00,63.0,62.4,30.08,SE,146,0.0,0.0,98,0.15,RA,,0.47,12.0,WeatherDisplay:10.37,2013-09-17 14:57:00,
2013-09-17 09:58:00,63.0,62.4,30.08,SE,146,0.0,0.0,98,0.15,RA,,0.47,12.0,WeatherDisplay:10.37,2013-09-17 14:58:00,
2013-09-17 09:59:00,63.0,62.4,30.08,SE,146,0.0,0.0,98,0.15,RA,,0.47,14.0,WeatherDisplay:10.37,2013-09-17 14:59:00,
2013-09-17 10:00:00,63.0,62.4,30.09,SE,144,0.1,1.2,98,0.14,RA,,0.47,14.0,WeatherDisplay:10.37,2013-09-17 15:00:00,
2013-09-17 10:01:00,63.0,62.4,30.09,SE,144,0.0,0.0,98,0.13,RA,,0.47,16.0,WeatherDisplay:10.37,2013-09-17 15:01:00,
2013-09-17 10:02:00,63.0,62.4,30.09,SE,126,0.1,0.0,98,0.13,RA,,0.48,18.0,WeatherDisplay:10.37,2013-09-17 15:02:00,
2013-09-17 10:03:00,63.0,62.4,30.09,SE,126,0.1,1.2,98,0.14,RA,,0.48,18.0,WeatherDisplay:10.37,2013-09-17 15:03:00,
2013-09-17 10:04:00,63.0,62.4,30.09,ESE,121,0.0,1.2,98,0.13,RA,,0.48,19.0,WeatherDisplay:10.37,2013-09-17 15:04:00,
2013-09-17 10:05:00,63.0,62.4,30.09,ESE,121,0.0,0.0,98,0.13,RA,,0.48,21.0,WeatherDisplay:10.37,2013-09-17 15:05:00,
2013-09-17 10:06:00,63.0,62.4,30.09,SE,138,0.0,0.0,98,0.13,RA,,0.48,21.0,WeatherDisplay:10.37,2013-09-17 15:06:00,
2013-09-17 10:08:00,63.0,62.4,30.09,SE,138,0.0,0.0,98,0.13,RA,,0.49,25.0,WeatherDisplay:10.37,2013-09-17 15:08:00,
2013-09-17 10:09:00,63.1,62.5,30.09,SE,135,0.0,1.2,98,0.13,RA,,0.49,25.0,WeatherDisplay:10.37,2013-09-17 15:09:00,
2013-09-17 10:10:00,63.1,62.5,30.09,SE,134,0.2,2.3,98,0.13,RA,,0.49,25.0,WeatherDisplay:10.37,2013-09-17 15:10:00,
2013-09-17 10:12:00,63.1,62.5,30.09,ESE,108,0.5,2.3,98,0.12,RA,,0.49,26.0,WeatherDisplay:10.37,2013-09-17 15:12:00,
2013-09-17 10:13:00,63.1,62.5,30.10,ESE,108,0.2,2.3,98,0.12,RA,,0.49,26.0,WeatherDisplay:10.37,2013-09-17 15:13:00,
2013-09-17 10:14:00,63.1,62.5,30.09,ESE,122,0.5,3.5,98,0.12,RA,,0.49,26.0,WeatherDisplay:10.37,2013-09-17 15:14:00,
2013-09-17 10:15:00,63.2,62.6,30.09,ESE,119,0.1,0.0,98,0.12,RA,,0.49,26.0,WeatherDisplay:10.37,2013-09-17 15:15:00,
2013-09-17 10:17:00,63.2,62.6,30.09,SE,126,0.4,2.3,98,0.12,RA,,0.50,26.0,WeatherDisplay:10.37,2013-09-17 15:17:00,
2013-09-17 10:18:00,63.2,62.6,30.09,SE,126,0.0,2.3,98,0.12,RA,,0.50,28.0,WeatherDisplay:10.37,2013-09-17 15:18:00,
2013-09-17 10:19:00,63.2,62.6,30.09,SE,126,0.0,0.0,98,0.12,RA,,0.50,30.0,WeatherDisplay:10.37,2013-09-17 15:19:00,
2013-09-17 10:20:00,63.2,62.6,30.09,SE,127,0.1,1.2,98,0.12,RA,,0.50,30.0,WeatherDisplay:10.37,2013-09-17 15:20:00,
2013-09-17 10:22:00,63.2,62.6,30.09,East,98,0.4,2.0,98,0.11,RA,,0.50,28.0,WeatherDisplay:10.37,2013-09-17 15:22:00,
2013-09-17 10:23:00,63.2,62.6,30.09,SE,126,1.1,3.5,98,0.11,RA,,0.50,28.0,WeatherDisplay:10.37,2013-09-17 15:23:00,
2013-09-17 10:24:00,63.3,62.7,30.09,ESE,116,1.4,3.5,98,0.11,RA,,0.50,26.0,WeatherDisplay:10.37,2013-09-17 15:24:00,
2013-09-17 10:26:00,63.2,62.6,30.08,ESE,116,0.0,0.0,98,0.10,RA,,0.50,25.0,WeatherDisplay:10.37,2013-09-17 15:26:00,
2013-09-17 10:27:00,63.3,62.7,30.08,ESE,115,0.2,1.2,98,0.09,RA,,0.50,21.0,WeatherDisplay:10.37,2013-09-17 15:27:00,
2013-09-17 10:28:00,63.3,62.7,30.08,ESE,110,0.9,1.2,98,0.10,RA,,0.51,21.0,WeatherDisplay:10.37,2013-09-17 15:28:00,
2013-09-17 10:29:00,63.3,62.7,30.08,ESE,123,1.3,2.3,98,0.10,RA,,0.51,21.0,WeatherDisplay:10.37,2013-09-17 15:29:00,
2013-09-17 10:30:00,63.3,62.7,30.08,ESE,123,0.2,2.3,98,0.09,RA,,0.51,21.0,WeatherDisplay:10.37,2013-09-17 15:30:00,
2013-09-17 10:31:00,63.3,62.7,30.08,ESE,123,0.0,1.2,98,0.09,RA,,0.51,21.0,WeatherDisplay:10.37,2013-09-17 15:31:00,
2013-09-17 10:32:00,63.3,62.7,30.08,ESE,113,0.4,3.0,98,0.09,RA,,0.51,23.0,WeatherDisplay:10.37,2013-09-17 15:32:00,
2013-09-17 10:34:00,63.3,62.7,30.08,SSE,153,1.1,4.0,98,0.09,RA,,0.51,25.0,WeatherDisplay:10.37,2013-09-17 15:34:00,
2013-09-17 10:36:00,63.3,62.7,30.08,ESE,107,1.8,3.5,98,0.08,RA,,0.51,26.0,WeatherDisplay:10.37,2013-09-17 15:36:00,
2013-09-17 10:38:00,63.4,62.8,30.08,SE,143,0.4,4.6,98,0.08,OVC,,0.51,28.0,WeatherDisplay:10.37,2013-09-17 15:38:00,
2013-09-17 10:39:00,63.4,62.8,30.08,SSE,165,0.9,3.5,98,0.09,RA,,0.52,28.0,WeatherDisplay:10.37,2013-09-17 15:39:00,
2013-09-17 10:41:00,63.4,62.8,30.08,SSE,151,0.3,2.3,98,0.08,RA,,0.52,32.0,WeatherDisplay:10.37,2013-09-17 15:41:00,
2013-09-17 10:43:00,63.5,62.9,30.08,ESE,102,0.1,3.0,98,0.09,RA,,0.53,33.0,WeatherDisplay:10.37,2013-09-17 15:43:00,
2013-09-17 10:44:00,63.5,62.9,30.08,ESE,113,1.8,4.6,98,0.09,RA,,0.54,33.0,WeatherDisplay:10.37,2013-09-17 15:44:00,
2013-09-17 10:46:00,63.5,62.9,30.08,SE,134,1.1,4.6,98,0.09,RA,,0.54,32.0,WeatherDisplay:10.37,2013-09-17 15:46:00,
2013-09-17 10:48:00,63.5,62.9,30.07,ESE,120,0.6,4.6,98,0.09,RA,,0.54,33.0,WeatherDisplay:10.37,2013-09-17 15:48:00,
2013-09-17 10:49:00,63.6,63.0,30.07,ESE,111,0.5,2.0,98,0.09,RA,,0.54,35.0,WeatherDisplay:10.37,2013-09-17 15:49:00,
2013-09-17 10:50:00,63.6,63.0,30.07,ESE,123,1.2,3.5,98,0.09,RA,,0.55,35.0,WeatherDisplay:10.37,2013-09-17 15:50:00,
2013-09-17 10:51:00,63.6,63.0,30.07,ESE,109,1.3,3.5,98,0.09,RA,,0.55,37.0,WeatherDisplay:10.37,2013-09-17 15:51:00,
2013-09-17 10:52:00,63.6,63.0,30.07,ESE,122,0.1,4.0,98,0.10,RA,,0.55,37.0,WeatherDisplay:10.37,2013-09-17 15:52:00,
2013-09-17 10:53:00,63.6,63.0,30.08,ESE,113,2.9,8.1,98,0.09,RA,,0.55,37.0,WeatherDisplay:10.37,2013-09-17 15:53:00,
2013-09-17 10:54:00,63.7,63.1,30.08,SE,135,0.1,3.5,98,0.09,RA,,0.55,35.0,WeatherDisplay:10.37,2013-09-17 15:54:00,
2013-09-17 10:55:00,63.7,63.1,30.08,ESE,116,0.6,1.2,98,0.09,RA,,0.55,35.0,WeatherDisplay:10.37,2013-09-17 15:55:00,
2013-09-17 10:56:00,63.7,63.1,30.08,ESE,111,0.5,3.5,98,0.09,RA,,0.55,35.0,WeatherDisplay:10.37,2013-09-17 15:56:00,
2013-09-17 10:57:00,63.8,63.2,30.07,SE,136,0.6,3.5,98,0.09,RA,,0.56,37.0,WeatherDisplay:10.37,2013-09-17 15:57:00,
2013-09-17 10:58:00,63.8,63.2,30.07,East,94,2.6,2.6,98,0.09,RA,,0.56,37.0,WeatherDisplay:10.37,2013-09-17 15:58:00,
2013-09-17 11:00:00,63.8,63.2,30.07,SE,134,0.1,1.2,98,0.09,RA,,0.56,37.0,WeatherDisplay:10.37,2013-09-17 16:00:00,
2013-09-17 11:02:00,63.8,63.2,30.07,SE,126,0.1,1.2,98,0.09,RA,,0.56,39.0,WeatherDisplay:10.37,2013-09-17 16:02:00,
2013-09-17 11:04:00,63.9,63.3,30.07,ESE,111,1.4,3.5,98,0.08,RA,,0.56,42.0,WeatherDisplay:10.37,2013-09-17 16:04:00,
2013-09-17 11:05:00,63.9,63.3,30.06,ESE,111,0.9,3.5,98,0.08,RA,,0.56,44.0,WeatherDisplay:10.37,2013-09-17 16:05:00,
2013-09-17 11:06:00,63.9,63.3,30.06,ESE,111,0.0,3.5,98,0.08,RA,,0.56,44.0,WeatherDisplay:10.37,2013-09-17 16:06:00,
2013-09-17 11:07:00,64.0,63.4,30.07,ESE,112,0.0,0.0,98,0.08,OVC,,0.56,44.0,WeatherDisplay:10.37,2013-09-17 16:07:00,
2013-09-17 11:09:00,64.0,63.4,30.06,SSE,148,0.5,3.5,98,0.07,OVC,,0.56,47.0,WeatherDisplay:10.37,2013-09-17 16:09:00,
2013-09-17 11:10:00,64.0,63.4,30.06,SE,143,0.3,2.3,98,0.07,OVC,,0.56,49.0,WeatherDisplay:10.37,2013-09-17 16:10:00,
2013-09-17 11:11:00,64.1,63.5,30.06,SE,138,0.2,2.0,98,0.07,OVC,,0.56,53.0,WeatherDisplay:10.37,2013-09-17 16:11:00,
2013-09-17 11:13:00,64.1,63.5,30.06,ESE,111,0.0,2.3,98,0.07,OVC,,0.56,63.0,WeatherDisplay:10.37,2013-09-17 16:13:00,
2013-09-17 11:14:00,64.2,63.6,30.06,SE,132,0.6,2.0,98,0.07,OVC,,0.56,63.0,WeatherDisplay:10.37,2013-09-17 16:14:00,
2013-09-17 11:16:00,64.2,63.6,30.06,SE,140,2.6,6.9,98,0.07,OVC,,0.56,69.0,WeatherDisplay:10.37,2013-09-17 16:16:00,
2013-09-17 11:18:00,64.3,63.7,30.06,SE,139,0.0,4.6,98,0.07,OVC,,0.56,81.0,WeatherDisplay:10.37,2013-09-17 16:18:00,
2013-09-17 11:20:00,64.4,63.8,30.06,ENE,68,0.1,1.0,98,0.06,OVC,,0.56,95.0,WeatherDisplay:10.37,2013-09-17 16:20:00,
2013-09-17 11:21:00,64.5,63.9,30.06,East,90,0.0,1.2,98,0.06,OVC,,0.56,95.0,WeatherDisplay:10.37,2013-09-17 16:21:00,
2013-09-17 11:23:00,64.7,64.1,30.06,SE,128,1.2,3.5,98,0.06,OVC,,0.56,97.0,WeatherDisplay:10.37,2013-09-17 16:23:00,
2013-09-17 11:24:00,64.8,64.2,30.06,SE,128,0.0,3.5,98,0.06,OVC,,0.56,84.0,WeatherDisplay:10.37,2013-09-17 16:24:00,
2013-09-17 11:25:00,64.8,64.2,30.06,ESE,119,0.1,0.0,98,0.06,OVC,,0.56,84.0,WeatherDisplay:10.37,2013-09-17 16:25:00,
2013-09-17 11:27:00,64.9,64.3,30.06,ESE,106,4.4,7.0,98,0.06,OVC,,0.56,79.0,WeatherDisplay:10.37,2013-09-17 16:27:00,
2013-09-17 11:28:00,64.9,64.3,30.06,SSE,148,1.2,6.9,98,0.05,OVC,,0.56,84.0,WeatherDisplay:10.37,2013-09-17 16:28:00,
2013-09-17 11:29:00,65.0,64.4,30.06,ESE,114,1.7,2.3,98,0.05,OVC,,0.56,84.0,WeatherDisplay:10.37,2013-09-17 16:29:00,
2013-09-17 11:30:00,65.0,64.4,30.06,SE,138,0.8,4.6,98,0.05,OVC,,0.56,88.0,WeatherDisplay:10.37,2013-09-17 16:30:00,
2013-09-17 11:32:00,65.1,64.5,30.07,ESE,111,0.8,3.5,98,0.05,OVC,,0.56,98.0,WeatherDisplay:10.37,2013-09-17 16:32:00,
2013-09-17 11:33:00,65.2,64.6,30.06,ESE,103,0.7,3.5,98,0.05,OVC,,0.56,97.0,WeatherDisplay:10.37,2013-09-17 16:33:00,
2013-09-17 11:35:00,65.3,64.7,30.06,East,87,2.6,6.9,98,0.05,OVC,,0.56,91.0,WeatherDisplay:10.37,2013-09-17 16:35:00,
2013-09-17 11:37:00,65.4,64.8,30.06,SE,125,0.8,4.6,98,0.05,OVC,,0.56,84.0,WeatherDisplay:10.37,2013-09-17 16:37:00,
2013-09-17 11:38:00,65.4,64.8,30.06,SE,124,2.1,6.9,98,0.05,OVC,,0.56,77.0,WeatherDisplay:10.37,2013-09-17 16:38:00,
2013-09-17 11:40:00,65.5,64.9,30.06,ESE,109,1.8,8.1,98,0.04,OVC,,0.56,76.0,WeatherDisplay:10.37,2013-09-17 16:40:00,
2013-09-17 11:41:00,65.5,64.9,30.06,SSE,151,0.7,3.5,98,0.04,OVC,,0.56,70.0,WeatherDisplay:10.37,2013-09-17 16:41:00,
2013-09-17 11:42:00,65.5,64.9,30.06,East,101,1.7,4.6,98,0.03,OVC,,0.56,72.0,WeatherDisplay:10.37,2013-09-17 16:42:00,
2013-09-17 11:44:00,65.6,65.0,30.06,ESE,119,1.0,4.6,98,0.03,OVC,,0.56,70.0,WeatherDisplay:10.37,2013-09-17 16:44:00,
2013-09-17 11:45:00,65.6,65.0,30.06,SSE,157,0.1,1.2,98,0.02,OVC,,0.56,62.0,WeatherDisplay:10.37,2013-09-17 16:45:00,
2013-09-17 11:47:00,65.6,65.0,30.06,East,101,0.7,4.6,98,0.04,RA,,0.58,62.0,WeatherDisplay:10.37,2013-09-17 16:47:00,
2013-09-17 11:49:00,65.7,65.1,30.06,SE,131,0.0,1.2,98,0.05,RA,,0.59,60.0,WeatherDisplay:10.37,2013-09-17 16:49:00,
2013-09-17 11:50:00,65.7,65.1,30.06,East,93,2.7,3.5,98,0.05,RA,,0.59,56.0,WeatherDisplay:10.37,2013-09-17 16:50:00,
2013-09-17 11:52:00,65.7,65.1,30.06,South,177,2.0,4.6,98,0.04,RA,,0.59,54.0,WeatherDisplay:10.37,2013-09-17 16:52:00,
2013-09-17 11:53:00,65.7,65.1,30.06,ESE,113,1.4,4.6,98,0.04,RA,,0.59,56.0,WeatherDisplay:10.37,2013-09-17 16:53:00,
2013-09-17 11:54:00,65.7,64.8,30.06,East,90,0.7,7.0,97,0.04,RA,,0.59,54.0,WeatherDisplay:10.37,2013-09-17 16:54:00,
2013-09-17 11:55:00,65.7,64.8,30.06,ESE,121,0.0,6.9,97,0.04,RA,,0.59,53.0,WeatherDisplay:10.37,2013-09-17 16:55:00,
2013-09-17 11:56:00,65.7,64.8,30.06,ESE,121,0.0,6.9,97,0.04,RA,,0.59,53.0,WeatherDisplay:10.37,2013-09-17 16:56:00,
2013-09-17 11:57:00,65.7,65.1,30.06,ESE,106,0.2,3.5,98,0.04,RA,,0.60,58.0,WeatherDisplay:10.37,2013-09-17 16:57:00,
2013-09-17 11:58:00,65.7,65.1,30.06,SSE,148,0.7,3.5,98,0.04,RA,,0.61,62.0,WeatherDisplay:10.37,2013-09-17 16:58:00,
2013-09-17 11:59:00,65.8,65.2,30.06,ESE,121,1.2,3.5,98,0.05,RA,,0.61,63.0,WeatherDisplay:10.37,2013-09-17 16:59:00,
2013-09-17 12:01:00,65.8,64.9,30.06,ESE,113,0.3,3.5,97,0.05,RA,,0.61,72.0,WeatherDisplay:10.37,2013-09-17 17:01:00,
2013-09-17 12:02:00,65.8,64.9,30.06,ESE,113,3.5,9.2,97,0.05,RA,,0.61,84.0,WeatherDisplay:10.37,2013-09-17 17:02:00,
2013-09-17 12:04:00,65.8,64.9,30.06,SE,146,0.3,3.5,97,0.05,RA,,0.61,102.0,WeatherDisplay:10.37,2013-09-17 17:04:00,
2013-09-17 12:06:00,65.8,64.9,30.06,ESE,115,0.6,3.5,97,0.05,RA,,0.61,125.0,WeatherDisplay:10.37,2013-09-17 17:06:00,
2013-09-17 12:07:00,65.9,65.3,30.06,SE,139,0.3,8.1,98,0.06,RA,,0.62,134.0,WeatherDisplay:10.37,2013-09-17 17:07:00,
2013-09-17 12:09:00,65.9,65.3,30.06,SE,135,0.0,0.0,98,0.06,RA,,0.62,137.0,WeatherDisplay:10.37,2013-09-17 17:09:00,
2013-09-17 12:11:00,66.0,65.4,30.06,East,93,0.7,2.3,98,0.06,RA,,0.62,135.0,WeatherDisplay:10.37,2013-09-17 17:11:00,
2013-09-17 12:14:00,66.1,65.5,30.05,SE,127,0.0,0.0,98,0.06,RA,,0.62,132.0,WeatherDisplay:10.37,2013-09-17 17:14:00,
2013-09-17 12:16:00,66.2,65.3,30.05,ESE,115,1.8,4.6,97,0.06,RA,,0.62,121.0,WeatherDisplay:10.37,2013-09-17 17:16:00,
2013-09-17 12:19:00,66.3,65.4,30.05,ESE,109,0.1,4.6,97,0.06,OVC,,0.62,100.0,WeatherDisplay:10.37,2013-09-17 17:19:00,
2013-09-17 12:20:00,66.2,65.3,30.05,ESE,108,0.1,1.2,97,0.06,OVC,,0.62,100.0,WeatherDisplay:10.37,2013-09-17 17:20:00,
2013-09-17 12:21:00,66.2,65.3,30.05,ESE,108,0.0,0.0,97,0.06,OVC,,0.62,98.0,WeatherDisplay:10.37,2013-09-17 17:21:00,
2013-09-17 12:24:00,66.2,65.3,30.05,SE,128,0.0,3.5,97,0.06,OVC,,0.62,95.0,WeatherDisplay:10.37,2013-09-17 17:24:00,
2013-09-17 12:25:00,66.3,65.4,30.05,SE,127,0.9,5.0,97,0.06,OVC,,0.62,91.0,WeatherDisplay:10.37,2013-09-17 17:25:00,
2013-09-17 12:26:00,66.2,65.3,30.05,SE,125,1.6,4.6,97,0.07,RA,,0.63,84.0,WeatherDisplay:10.37,2013-09-17 17:26:00,
2013-09-17 12:29:00,66.2,65.3,30.05,SE,132,1.8,6.9,97,0.07,RA,,0.64,77.0,WeatherDisplay:10.37,2013-09-17 17:29:00,
2013-09-17 12:30:00,66.2,65.3,30.05,South,188,0.5,6.9,97,0.07,RA,,0.64,74.0,WeatherDisplay:10.37,2013-09-17 17:30:00,
2013-09-17 12:31:00,66.2,65.3,30.04,ESE,104,0.4,4.0,97,0.09,RA,,0.65,69.0,WeatherDisplay:10.37,2013-09-17 17:31:00,
2013-09-17 12:34:00,66.1,65.2,30.04,SE,140,1.7,8.1,97,0.12,RA,,0.68,63.0,WeatherDisplay:10.37,2013-09-17 17:34:00,
2013-09-17 12:35:00,66.1,65.2,30.04,ESE,119,0.4,3.5,97,0.12,RA,,0.69,63.0,WeatherDisplay:10.37,2013-09-17 17:35:00,
2013-09-17 12:36:00,66.1,65.2,30.04,ESE,119,0.1,3.5,97,0.14,RA,,0.71,67.0,WeatherDisplay:10.37,2013-09-17 17:36:00,
2013-09-17 12:37:00,66.1,65.2,30.03,ESE,119,0.0,0.0,97,0.15,RA,,0.72,72.0,WeatherDisplay:10.37,2013-09-17 17:37:00,
2013-09-17 12:39:00,66.0,65.1,30.03,ESE,119,0.0,0.0,97,0.16,RA,,0.73,97.0,WeatherDisplay:10.37,2013-09-17 17:39:00,
2013-09-17 12:40:00,66.1,65.2,30.03,ESE,119,0.0,0.0,97,0.17,RA,,0.73,97.0,WeatherDisplay:10.37,2013-09-17 17:40:00,
2013-09-17 12:42:00,66.0,65.1,30.03,ESE,120,0.1,1.2,97,0.17,RA,,0.73,116.0,WeatherDisplay:10.37,2013-09-17 17:42:00,
2013-09-17 12:43:00,66.0,65.1,30.03,ESE,120,0.1,1.2,97,0.17,RA,,0.73,125.0,WeatherDisplay:10.37,2013-09-17 17:43:00,
2013-09-17 12:45:00,66.1,65.2,30.03,ESE,109,0.1,2.3,97,0.17,RA,,0.73,132.0,WeatherDisplay:10.37,2013-09-17 17:45:00,
2013-09-17 12:46:00,66.1,65.2,30.03,ESE,112,0.0,1.2,97,0.16,RA,,0.73,127.0,WeatherDisplay:10.37,2013-09-17 17:46:00,
2013-09-17 12:47:00,66.1,65.2,30.03,SE,143,1.1,4.6,97,0.15,RA,,0.73,123.0,WeatherDisplay:10.37,2013-09-17 17:47:00,
2013-09-17 12:48:00,66.1,65.5,30.03,SE,130,2.3,4.6,98,0.15,RA,,0.73,121.0,WeatherDisplay:10.37,2013-09-17 17:48:00,
2013-09-17 12:50:00,66.2,65.3,30.03,SE,141,0.2,2.3,97,0.14,OVC,,0.73,132.0,WeatherDisplay:10.37,2013-09-17 17:50:00,
2013-09-17 12:51:00,66.2,65.3,30.03,East,87,0.1,1.2,97,0.14,OVC,,0.73,146.0,WeatherDisplay:10.37,2013-09-17 17:51:00,
2013-09-17 12:52:00,66.3,65.4,30.03,East,87,0.0,1.2,97,0.14,OVC,,0.73,163.0,WeatherDisplay:10.37,2013-09-17 17:52:00,
2013-09-17 12:54:00,66.4,65.5,30.03,East,88,0.0,0.0,97,0.14,OVC,,0.73,209.0,WeatherDisplay:10.37,2013-09-17 17:54:00,
2013-09-17 12:55:00,66.5,65.9,30.03,ESE,109,0.0,0.0,98,0.14,OVC,,0.73,237.0,WeatherDisplay:10.37,2013-09-17 17:55:00,
2013-09-17 12:56:00,66.6,66.0,30.03,SE,128,0.0,1.2,98,0.14,OVC,,0.73,237.0,WeatherDisplay:10.37,2013-09-17 17:56:00,
2013-09-17 12:57:00,66.7,66.1,30.03,SE,131,0.8,2.0,98,0.13,OVC,,0.73,234.0,WeatherDisplay:10.37,2013-09-17 17:57:00,
2013-09-17 12:59:00,66.7,65.8,30.03,ESE,121,0.0,0.0,97,0.12,OVC,,0.73,204.0,WeatherDisplay:10.37,2013-09-17 17:59:00,
2013-09-17 13:01:00,66.8,66.2,30.03,East,101,2.0,2.0,98,0.12,OVC,,0.73,199.0,WeatherDisplay:10.37,2013-09-17 18:01:00,
2013-09-17 13:02:00,66.8,65.9,30.03,SE,129,2.4,5.8,97,0.12,OVC,,0.73,197.0,WeatherDisplay:10.37,2013-09-17 18:02:00,
2013-09-17 13:04:00,66.9,66.0,30.03,ESE,121,0.0,1.2,97,0.12,OVC,,0.73,209.0,WeatherDisplay:10.37,2013-09-17 18:04:00,
2013-09-17 13:06:00,67.0,66.1,30.03,SE,126,1.1,3.5,97,0.12,OVC,,0.73,220.0,WeatherDisplay:10.37,2013-09-17 18:06:00,
2013-09-17 13:07:00,67.0,66.1,30.03,SE,126,1.0,4.6,97,0.11,OVC,,0.73,220.0,WeatherDisplay:10.37,2013-09-17 18:07:00,
2013-09-17 13:08:00,67.1,66.2,30.03,ESE,119,0.2,4.6,97,0.11,OVC,,0.73,221.0,WeatherDisplay:10.37,2013-09-17 18:08:00,
2013-09-17 13:09:00,67.2,66.3,30.03,East,88,0.2,0.0,97,0.11,OVC,,0.73,218.0,WeatherDisplay:10.37,2013-09-17 18:09:00,
2013-09-17 13:11:00,67.4,66.5,30.03,East,97,0.0,0.0,97,0.11,OVC,,0.73,230.0,WeatherDisplay:10.37,2013-09-17 18:11:00,
2013-09-17 13:12:00,67.5,66.6,30.03,ESE,113,0.0,0.0,97,0.11,OVC,,0.73,230.0,WeatherDisplay:10.37,2013-09-17 18:12:00,
2013-09-17 13:13:00,67.5,66.6,30.02,ESE,116,0.2,2.3,97,0.11,OVC,,0.73,236.0,WeatherDisplay:10.37,2013-09-17 18:13:00,
2013-09-17 13:15:00,67.5,66.6,30.02,ESE,109,0.0,1.2,97,0.11,OVC,,0.73,237.0,WeatherDisplay:10.37,2013-09-17 18:15:00,
2013-09-17 13:17:00,67.6,66.7,30.03,ESE,113,0.9,3.5,97,0.11,OVC,,0.73,239.0,WeatherDisplay:10.37,2013-09-17 18:17:00,
2013-09-17 13:18:00,67.7,66.8,30.03,SE,128,0.9,3.5,97,0.11,OVC,,0.73,243.0,WeatherDisplay:10.37,2013-09-17 18:18:00,
2013-09-17 13:21:00,67.7,66.5,30.03,SE,134,2.0,4.6,96,0.11,OVC,,0.73,269.0,WeatherDisplay:10.37,2013-09-17 18:21:00,
2013-09-17 13:22:00,67.8,66.6,30.02,ESE,115,1.9,4.6,96,0.11,OVC,,0.73,272.0,WeatherDisplay:10.37,2013-09-17 18:22:00,
2013-09-17 13:23:00,67.9,66.7,30.03,ESE,116,0.2,2.3,96,0.11,OVC,,0.73,278.0,WeatherDisplay:10.37,2013-09-17 18:23:00,
2013-09-17 13:26:00,68.1,67.2,30.03,East,94,0.0,0.0,97,0.11,OVC,,0.73,288.0,WeatherDisplay:10.37,2013-09-17 18:26:00,
2013-09-17 13:27:00,68.2,67.0,30.02,ESE,111,1.3,3.5,96,0.10,OVC,,0.73,301.0,WeatherDisplay:10.37,2013-09-17 18:27:00,
2013-09-17 13:28:00,68.2,67.0,30.02,East,92,1.9,3.5,96,0.10,OVC,,0.73,308.0,WeatherDisplay:10.37,2013-09-17 18:28:00,
2013-09-17 13:31:00,68.2,66.7,30.02,ESE,109,2.6,4.6,95,0.08,OVC,,0.73,327.0,WeatherDisplay:10.37,2013-09-17 18:31:00,
2013-09-17 13:32:00,68.2,66.7,30.02,ESE,109,2.0,4.6,95,0.07,OVC,,0.73,332.0,WeatherDisplay:10.37,2013-09-17 18:32:00,
2013-09-17 13:33:00,68.2,67.0,30.02,SE,138,2.9,8.1,96,0.07,OVC,,0.73,330.0,WeatherDisplay:10.37,2013-09-17 18:33:00,
2013-09-17 13:36:00,68.4,66.9,30.02,East,96,4.0,11.5,95,0.03,OVC,,0.73,366.0,WeatherDisplay:10.37,2013-09-17 18:36:00,
2013-09-17 13:38:00,68.5,67.0,30.02,ESE,113,0.4,9.2,95,0.01,OVC,,0.73,366.0,WeatherDisplay:10.37,2013-09-17 18:38:00,
2013-09-17 13:41:00,68.8,67.3,30.02,SE,138,0.3,6.9,95,0.00,OVC,,0.73,288.0,WeatherDisplay:10.37,2013-09-17 18:41:00,
2013-09-17 13:43:00,68.9,67.7,30.02,East,86,0.1,3.5,96,0.00,OVC,,0.73,315.0,WeatherDisplay:10.37,2013-09-17 18:43:00,
2013-09-17 13:44:00,68.9,67.7,30.02,East,86,0.1,3.5,96,0.00,OVC,,0.73,315.0,WeatherDisplay:10.37,2013-09-17 18:44:00,
2013-09-17 13:47:00,69.0,67.5,30.02,ESE,107,0.2,4.6,95,0.00,OVC,,0.73,311.0,WeatherDisplay:10.37,2013-09-17 18:47:00,
2013-09-17 13:48:00,69.1,67.6,30.02,ESE,113,1.5,6.9,95,0.00,OVC,,0.73,299.0,WeatherDisplay:10.37,2013-09-17 18:48:00,
2013-09-17 13:49:00,69.2,67.7,30.02,East,96,1.7,6.0,95,0.00,OVC,,0.73,299.0,WeatherDisplay:10.37,2013-09-17 18:49:00,
2013-09-17 13:52:00,69.2,67.7,30.01,ESE,117,3.0,5.0,95,0.00,OVC,,0.73,267.0,WeatherDisplay:10.37,2013-09-17 18:52:00,
2013-09-17 13:54:00,69.2,67.7,30.01,ESE,120,0.7,3.5,95,0.00,OVC,,0.73,299.0,WeatherDisplay:10.37,2013-09-17 18:54:00,
2013-09-17 13:55:00,69.2,67.7,30.01,ESE,120,0.1,3.5,95,0.00,OVC,,0.73,329.0,WeatherDisplay:10.37,2013-09-17 18:55:00,
2013-09-17 13:57:00,69.4,67.9,30.01,SE,127,2.6,6.9,95,0.00,OVC,,0.73,292.0,WeatherDisplay:10.37,2013-09-17 18:57:00,
2013-09-17 13:59:00,69.4,67.6,30.01,ESE,121,5.0,9.2,94,0.00,OVC,,0.73,264.0,WeatherDisplay:10.37,2013-09-17 18:59:00,
2013-09-17 14:00:00,69.4,67.6,30.01,SE,133,1.2,9.2,94,0.00,OVC,,0.73,257.0,WeatherDisplay:10.37,2013-09-17 19:00:00,
2013-09-17 14:03:00,69.4,67.6,30.02,SE,142,2.2,3.5,94,0.00,OVC,,0.73,178.0,WeatherDisplay:10.37,2013-09-17 19:03:00,
2013-09-17 14:04:00,69.4,67.6,30.01,SSE,155,3.7,6.9,94,0.00,OVC,,0.73,181.0,WeatherDisplay:10.37,2013-09-17 19:04:00,
2013-09-17 14:05:00,69.3,67.5,30.01,East,95,2.9,4.6,94,0.00,OVC,,0.73,185.0,WeatherDisplay:10.37,2013-09-17 19:05:00,
2013-09-17 14:08:00,69.3,67.5,30.01,SE,139,1.2,3.5,94,0.00,OVC,,0.73,134.0,WeatherDisplay:10.37,2013-09-17 19:08:00,
2013-09-17 14:09:00,69.2,67.4,30.01,East,88,0.8,3.5,94,0.00,OVC,,0.73,107.0,WeatherDisplay:10.37,2013-09-17 19:09:00,
2013-09-17 14:10:00,69.2,67.4,30.01,East,101,0.8,3.5,94,0.00,OVC,,0.73,107.0,WeatherDisplay:10.37,2013-09-17 19:10:00,
2013-09-17 14:13:00,69.2,67.4,30.01,SSE,154,0.0,0.0,94,0.00,OVC,,0.73,84.0,WeatherDisplay:10.37,2013-09-17 19:13:00,
2013-09-17 14:14:00,69.1,67.6,30.01,SSE,164,1.2,5.0,95,0.00,OVC,,0.73,81.0,WeatherDisplay:10.37,2013-09-17 19:14:00,
2013-09-17 14:15:00,69.1,67.6,30.01,ESE,115,1.5,5.8,95,0.00,OVC,,0.73,81.0,WeatherDisplay:10.37,2013-09-17 19:15:00,
2013-09-17 14:18:00,68.9,67.1,30.01,SE,146,1.1,4.0,94,0.00,OVC,,0.73,91.0,WeatherDisplay:10.37,2013-09-17 19:18:00,
2013-09-17 14:19:00,68.9,67.1,30.01,ESE,112,4.9,5.0,94,0.00,OVC,,0.73,100.0,WeatherDisplay:10.37,2013-09-17 19:19:00,
2013-09-17 14:20:00,68.9,67.1,30.01,East,100,4.9,8.1,94,0.00,OVC,,0.73,100.0,WeatherDisplay:10.37,2013-09-17 19:20:00,
2013-09-17 14:24:00,68.8,67.3,30.01,ESE,115,2.0,8.1,95,0.00,OVC,,0.73,125.0,WeatherDisplay:10.37,2013-09-17 19:24:00,
2013-09-17 14:25:00,68.8,67.3,30.01,SE,127,1.2,3.5,95,0.00,OVC,,0.73,130.0,WeatherDisplay:10.37,2013-09-17 19:25:00,
2013-09-17 14:30:00,68.8,67.3,30.00,SE,134,1.4,6.9,95,0.01,RA,,0.74,149.0,WeatherDisplay:10.37,2013-09-17 19:30:00,
2013-09-17 14:31:00,68.8,67.3,30.00,East,86,4.8,8.0,95,0.01,RA,,0.74,149.0,WeatherDisplay:10.37,2013-09-17 19:31:00,
2013-09-17 14:35:00,68.7,67.2,30.00,ESE,115,1.4,4.0,95,0.01,RA,,0.74,151.0,WeatherDisplay:10.37,2013-09-17 19:35:00,
2013-09-17 14:36:00,68.7,67.2,30.00,SE,136,2.2,5.8,95,0.01,RA,,0.74,155.0,WeatherDisplay:10.37,2013-09-17 19:36:00,
2013-09-17 14:40:00,68.7,67.5,30.00,ESE,103,1.2,6.9,96,0.02,RA,,0.75,163.0,WeatherDisplay:10.37,2013-09-17 19:40:00,
2013-09-17 14:41:00,68.7,67.5,30.00,SE,126,1.0,7.0,96,0.00,RA,,0.75,163.0,WeatherDisplay:10.37,2013-09-17 19:41:00,
2013-09-17 14:45:00,68.6,67.4,29.99,ESE,115,1.5,6.9,96,0.02,RA,,0.75,141.0,WeatherDisplay:10.37,2013-09-17 19:45:00,
2013-09-17 14:46:00,68.6,67.4,29.99,SE,124,3.5,6.9,96,0.02,RA,,0.75,134.0,WeatherDisplay:10.37,2013-09-17 19:46:00,
2013-09-17 14:47:00,68.6,67.4,29.99,ESE,123,3.8,8.1,96,0.02,RA,,0.75,127.0,WeatherDisplay:10.37,2013-09-17 19:47:00,
2013-09-17 14:50:00,68.6,67.1,29.99,ESE,109,0.9,5.0,95,0.02,OVC,,0.75,105.0,WeatherDisplay:10.37,2013-09-17 19:50:00,
2013-09-17 14:51:00,68.5,67.0,29.99,East,93,1.4,4.6,95,0.02,OVC,,0.75,105.0,WeatherDisplay:10.37,2013-09-17 19:51:00,
2013-09-17 14:52:00,68.5,67.0,29.99,ESE,118,0.2,4.6,95,0.02,OVC,,0.75,104.0,WeatherDisplay:10.37,2013-09-17 19:52:00,
2013-09-17 14:55:00,68.6,67.4,29.99,SE,141,0.2,3.5,96,0.02,OVC,,0.75,98.0,WeatherDisplay:10.37,2013-09-17 19:55:00,
2013-09-17 14:56:00,68.6,67.4,29.99,South,183,2.0,4.6,96,0.02,OVC,,0.75,95.0,WeatherDisplay:10.37,2013-09-17 19:56:00,
2013-09-17 14:57:00,68.6,67.1,29.99,ESE,123,0.2,5.8,95,0.02,OVC,,0.75,95.0,WeatherDisplay:10.37,2013-09-17 19:57:00,
2013-09-17 15:01:00,68.6,67.1,29.99,ESE,122,1.0,6.0,95,0.00,OVC,,0.75,91.0,WeatherDisplay:10.37,2013-09-17 20:01:00,
2013-09-17 15:02:00,68.6,67.4,29.98,East,100,0.2,3.5,96,0.02,OVC,,0.75,93.0,WeatherDisplay:10.37,2013-09-17 20:02:00,
2013-09-17 15:03:00,68.6,67.4,29.98,East,101,0.5,3.5,96,0.02,OVC,,0.75,93.0,WeatherDisplay:10.37,2013-09-17 20:03:00,
2013-09-17 15:06:00,68.6,67.4,29.98,East,101,3.3,4.6,96,0.02,OVC,,0.75,100.0,WeatherDisplay:10.37,2013-09-17 20:06:00,
2013-09-17 15:08:00,68.6,67.1,29.98,SE,127,1.6,4.6,95,0.02,OVC,,0.75,105.0,WeatherDisplay:10.37,2013-09-17 20:08:00,
2013-09-17 15:11:00,68.6,67.1,29.98,SE,140,1.7,5.0,95,0.02,OVC,,0.75,113.0,WeatherDisplay:10.37,2013-09-17 20:11:00,
2013-09-17 15:12:00,68.6,67.1,29.98,ESE,117,3.0,10.4,95,0.02,OVC,,0.75,120.0,WeatherDisplay:10.37,2013-09-17 20:12:00,
2013-09-17 15:13:00,68.6,67.1,29.98,ESE,120,1.1,3.5,95,0.02,OVC,,0.75,123.0,WeatherDisplay:10.37,2013-09-17 20:13:00,
2013-09-17 15:16:00,68.8,67.3,29.98,SSE,148,1.7,5.0,95,0.02,OVC,,0.75,135.0,WeatherDisplay:10.37,2013-09-17 20:16:00,
2013-09-17 15:17:00,68.7,67.2,29.98,ESE,105,1.0,6.9,95,0.02,OVC,,0.75,144.0,WeatherDisplay:10.37,2013-09-17 20:17:00,
2013-09-17 15:18:00,68.7,67.2,29.98,SSE,159,0.1,3.5,95,0.02,OVC,,0.75,148.0,WeatherDisplay:10.37,2013-09-17 20:18:00,
2013-09-17 15:21:00,68.8,67.3,29.98,South,187,0.0,0.0,95,0.02,OVC,,0.75,156.0,WeatherDisplay:10.37,2013-09-17 20:21:00,
2013-09-17 15:22:00,68.9,67.4,29.98,South,186,0.0,0.0,95,0.02,OVC,,0.75,162.0,WeatherDisplay:10.37,2013-09-17 20:22:00,
2013-09-17 15:23:00,68.9,67.4,29.98,South,186,0.0,0.0,95,0.02,OVC,,0.75,163.0,WeatherDisplay:10.37,2013-09-17 20:23:00,
2013-09-17 15:26:00,69.1,67.6,29.98,South,175,0.0,0.0,95,0.02,OVC,,0.75,169.0,WeatherDisplay:10.37,2013-09-17 20:26:00,
2013-09-17 15:27:00,69.2,67.7,29.98,South,175,0.0,0.0,95,0.02,OVC,,0.75,171.0,WeatherDisplay:10.37,2013-09-17 20:27:00,
2013-09-17 15:28:00,69.1,67.6,29.98,South,175,0.0,0.0,95,0.02,OVC,,0.75,171.0,WeatherDisplay:10.37,2013-09-17 20:28:00,
2013-09-17 15:31:00,69.2,67.7,29.97,SE,125,0.1,2.3,95,0.01,OVC,,0.75,178.0,WeatherDisplay:10.37,2013-09-17 20:31:00,
2013-09-17 15:33:00,69.3,67.8,29.97,SE,125,0.0,2.3,95,0.01,OVC,,0.75,179.0,WeatherDisplay:10.37,2013-09-17 20:33:00,
2013-09-17 15:34:00,69.3,67.8,29.97,SE,125,0.3,2.3,95,0.01,OVC,,0.75,183.0,WeatherDisplay:10.37,2013-09-17 20:34:00,
2013-09-17 15:36:00,69.4,67.6,29.97,ESE,121,0.7,3.5,94,0.01,OVC,,0.75,190.0,WeatherDisplay:10.37,2013-09-17 20:36:00,
2013-09-17 15:38:00,69.5,67.7,29.97,SE,126,1.5,3.5,94,0.01,OVC,,0.75,202.0,WeatherDisplay:10.37,2013-09-17 20:38:00,
2013-09-17 15:39:00,69.6,67.8,29.97,ESE,113,0.2,3.5,94,0.01,OVC,,0.75,213.0,WeatherDisplay:10.37,2013-09-17 20:39:00,
2013-09-17 15:40:00,69.6,67.8,29.97,ESE,113,0.0,1.2,94,0.00,OVC,,0.75,218.0,WeatherDisplay:10.37,2013-09-17 20:40:00,
2013-09-17 15:41:00,69.7,67.9,29.97,SE,142,0.7,2.3,94,0.00,OVC,,0.75,221.0,WeatherDisplay:10.37,2013-09-17 20:41:00,
2013-09-17 15:43:00,69.8,68.0,29.97,SE,135,0.9,3.5,94,0.00,OVC,,0.75,232.0,WeatherDisplay:10.37,2013-09-17 20:43:00,
2013-09-17 15:44:00,70.0,68.2,29.96,NNE,16,1.0,4.0,94,0.00,OVC,,0.75,276.0,WeatherDisplay:10.37,2013-09-17 20:44:00,
2013-09-17 15:45:00,70.0,67.9,29.96,ESE,104,0.9,4.6,93,0.00,OVC,,0.75,274.0,WeatherDisplay:10.37,2013-09-17 20:45:00,
2013-09-17 15:46:00,70.1,68.0,29.96,SE,126,1.7,2.3,93,0.00,OVC,,0.75,274.0,WeatherDisplay:10.37,2013-09-17 20:46:00,
2013-09-17 15:48:00,70.2,68.1,29.96,ESE,121,2.8,10.0,93,0.00,OVC,,0.75,299.0,WeatherDisplay:10.37,2013-09-17 20:48:00,
2013-09-17 15:49:00,70.3,67.9,29.96,SE,144,2.5,10.4,92,0.00,OVC,,0.75,309.0,WeatherDisplay:10.37,2013-09-17 20:49:00,
2013-09-17 15:51:00,70.5,68.1,29.96,ESE,114,2.8,3.5,92,0.00,OVC,,0.75,308.0,WeatherDisplay:10.37,2013-09-17 20:51:00,
2013-09-17 15:52:00,70.6,68.2,29.96,SE,134,2.2,6.9,92,0.00,OVC,,0.75,336.0,WeatherDisplay:10.37,2013-09-17 20:52:00,
2013-09-17 15:53:00,70.6,68.2,29.96,SE,130,4.0,8.1,92,0.00,OVC,,0.75,309.0,WeatherDisplay:10.37,2013-09-17 20:53:00,
2013-09-17 15:54:00,70.7,68.3,29.96,ESE,121,1.6,10.4,92,0.00,OVC,,0.75,295.0,WeatherDisplay:10.37,2013-09-17 20:54:00,
2013-09-17 15:56:00,70.7,68.3,29.96,SSE,153,2.3,11.5,92,0.00,OVC,,0.75,260.0,WeatherDisplay:10.37,2013-09-17 20:56:00,
2013-09-17 15:57:00,70.7,68.3,29.96,ESE,116,2.7,7.0,92,0.00,OVC,,0.75,250.0,WeatherDisplay:10.37,2013-09-17 20:57:00,
2013-09-17 15:58:00,70.8,68.4,29.96,ESE,106,4.7,6.9,92,0.00,OVC,,0.75,237.0,WeatherDisplay:10.37,2013-09-17 20:58:00,
2013-09-17 15:59:00,70.8,68.4,29.96,ESE,109,3.3,9.0,92,0.00,OVC,,0.75,230.0,WeatherDisplay:10.37,2013-09-17 20:59:00,
2013-09-17 16:01:00,70.8,68.4,29.96,East,92,1.7,9.2,92,0.00,OVC,,0.75,221.0,WeatherDisplay:10.37,2013-09-17 21:01:00,
2013-09-17 16:03:00,70.8,68.4,29.96,SE,128,0.6,9.2,92,0.00,OVC,,0.75,218.0,WeatherDisplay:10.37,2013-09-17 21:03:00,
2013-09-17 16:04:00,70.8,68.4,29.96,East,82,0.4,1.2,92,0.00,OVC,,0.75,225.0,WeatherDisplay:10.37,2013-09-17 21:04:00,
2013-09-17 16:06:00,70.8,68.4,29.96,SE,138,1.0,3.5,92,0.00,OVC,,0.75,206.0,WeatherDisplay:10.37,2013-09-17 21:06:00,
2013-09-17 16:07:00,70.7,68.3,29.96,ESE,108,1.3,3.5,92,0.00,OVC,,0.75,214.0,WeatherDisplay:10.37,2013-09-17 21:07:00,
2013-09-17 16:08:00,70.8,68.4,29.96,ESE,121,1.9,4.6,92,0.00,OVC,,0.75,214.0,WeatherDisplay:10.37,2013-09-17 21:08:00,
2013-09-17 16:09:00,70.7,67.9,29.96,ESE,109,3.0,8.1,91,0.00,OVC,,0.75,221.0,WeatherDisplay:10.37,2013-09-17 21:09:00,
2013-09-17 16:12:00,70.6,68.2,29.95,NNW,331,1.5,4.6,92,0.00,OVC,,0.75,223.0,WeatherDisplay:10.37,2013-09-17 21:12:00,
2013-09-17 16:13:00,70.6,68.2,29.95,SE,138,0.3,4.6,92,0.00,OVC,,0.75,216.0,WeatherDisplay:10.37,2013-09-17 21:13:00,
2013-09-17 16:14:00,70.6,68.2,29.95,ESE,113,2.2,4.6,92,0.00,OVC,,0.75,207.0,WeatherDisplay:10.37,2013-09-17 21:14:00,
2013-09-17 16:15:00,70.6,68.2,29.95,SE,130,1.1,5.0,92,0.00,OVC,,0.75,223.0,WeatherDisplay:10.37,2013-09-17 21:15:00,
2013-09-17 16:17:00,70.6,68.2,29.95,South,173,0.8,5.8,92,0.00,OVC,,0.75,239.0,WeatherDisplay:10.37,2013-09-17 21:17:00,
2013-09-17 16:18:00,70.6,68.2,29.95,ESE,118,1.0,3.5,92,0.00,OVC,,0.75,239.0,WeatherDisplay:10.37,2013-09-17 21:18:00,
2013-09-17 16:19:00,70.7,68.3,29.95,ESE,116,2.9,6.9,92,0.00,OVC,,0.75,230.0,WeatherDisplay:10.37,2013-09-17 21:19:00,
2013-09-17 16:20:00,70.7,68.3,29.95,ESE,109,1.6,6.9,92,0.00,OVC,,0.75,230.0,WeatherDisplay:10.37,2013-09-17 21:20:00,
2013-09-17 16:22:00,70.8,68.4,29.95,ESE,120,4.4,11.5,92,0.00,OVC,,0.75,271.0,WeatherDisplay:10.37,2013-09-17 21:22:00,
2013-09-17 16:23:00,70.8,68.4,29.95,South,173,4.0,10.4,92,0.00,OVC,,0.75,271.0,WeatherDisplay:10.37,2013-09-17 21:23:00,
2013-09-17 16:24:00,70.8,68.0,29.95,East,101,2.9,11.5,91,0.00,OVC,,0.75,236.0,WeatherDisplay:10.37,2013-09-17 21:24:00,
2013-09-17 16:25:00,70.8,68.0,29.95,East,101,0.8,6.9,91,0.00,OVC,,0.75,234.0,WeatherDisplay:10.37,2013-09-17 21:25:00,
2013-09-17 16:27:00,71.0,68.6,29.94,SE,144,1.3,3.5,92,0.00,OVC,,0.75,237.0,WeatherDisplay:10.37,2013-09-17 21:27:00,
2013-09-17 16:28:00,71.0,68.6,29.95,ESE,116,1.8,4.6,92,0.00,OVC,,0.75,232.0,WeatherDisplay:10.37,2013-09-17 21:28:00,
2013-09-17 16:30:00,71.1,68.3,29.94,ESE,121,1.6,6.9,91,0.00,OVC,,0.75,262.0,WeatherDisplay:10.37,2013-09-17 21:30:00,
2013-09-17 16:33:00,71.2,68.4,29.94,ESE,114,3.3,6.9,91,0.00,OVC,,0.75,301.0,WeatherDisplay:10.37,2013-09-17 21:33:00,
2013-09-17 16:35:00,71.6,68.8,29.94,East,87,4.9,9.2,91,0.00,OVC,,0.75,415.0,WeatherDisplay:10.37,2013-09-17 21:35:00,
2013-09-17 16:38:00,72.1,69.0,29.94,ESE,115,4.0,10.0,90,0.00,OVC,,0.75,359.0,WeatherDisplay:10.37,2013-09-17 21:38:00,
2013-09-17 16:39:00,72.1,69.0,29.94,East,98,4.9,10.4,90,0.00,OVC,,0.75,341.0,WeatherDisplay:10.37,2013-09-17 21:39:00,
2013-09-17 16:40:00,72.2,69.1,29.94,ESE,104,0.3,8.1,90,0.00,OVC,,0.75,304.0,WeatherDisplay:10.37,2013-09-17 21:40:00,
2013-09-17 16:41:00,72.2,69.1,29.94,East,95,1.1,10.0,90,0.00,OVC,,0.75,211.0,WeatherDisplay:10.37,2013-09-17 21:41:00,
2013-09-17 16:43:00,72.1,68.3,29.94,SSE,159,2.7,9.2,88,0.00,OVC,,0.75,160.0,WeatherDisplay:10.37,2013-09-17 21:43:00,
2013-09-17 16:44:00,72.0,68.6,29.94,East,88,4.8,11.5,89,0.00,OVC,,0.75,155.0,WeatherDisplay:10.37,2013-09-17 21:44:00,
2013-09-17 16:45:00,71.9,68.2,29.94,East,87,5.0,11.5,88,0.00,OVC,,0.75,155.0,WeatherDisplay:10.37,2013-09-17 21:45:00,
2013-09-17 16:47:00,71.6,68.2,29.94,SE,143,6.6,11.5,89,0.00,OVC,,0.75,174.0,WeatherDisplay:10.37,2013-09-17 21:47:00,
2013-09-17 16:48:00,71.5,67.8,29.94,SE,134,3.2,15.0,88,0.00,OVC,,0.75,185.0,WeatherDisplay:10.37,2013-09-17 21:48:00,
2013-09-17 16:49:00,71.5,68.1,29.94,East,94,2.6,9.2,89,0.00,OVC,,0.75,185.0,WeatherDisplay:10.37,2013-09-17 21:49:00,
2013-09-17 16:50:00,71.4,68.0,29.94,SE,142,0.2,3.5,89,0.00,OVC,,0.75,162.0,WeatherDisplay:10.37,2013-09-17 21:50:00,
2013-09-17 16:52:00,71.4,68.0,29.94,ESE,116,5.4,7.0,89,0.00,OVC,,0.75,162.0,WeatherDisplay:10.37,2013-09-17 21:52:00,
2013-09-17 16:53:00,71.4,68.0,29.94,East,82,1.9,11.5,89,0.00,OVC,,0.75,107.0,WeatherDisplay:10.37,2013-09-17 21:53:00,
2013-09-17 16:54:00,71.3,67.9,29.94,ESE,120,2.4,5.8,89,0.00,OVC,,0.75,132.0,WeatherDisplay:10.37,2013-09-17 21:54:00,
2013-09-17 16:56:00,71.3,67.9,29.94,SE,128,5.3,5.3,89,0.00,OVC,,0.75,118.0,WeatherDisplay:10.37,2013-09-17 21:56:00,
2013-09-17 16:57:00,71.3,67.9,29.94,ESE,121,1.6,10.4,89,0.00,OVC,,0.75,190.0,WeatherDisplay:10.37,2013-09-17 21:57:00,
2013-09-17 16:59:00,71.3,67.9,29.94,SE,131,1.7,6.9,89,0.00,OVC,,0.75,533.0,WeatherDisplay:10.37,2013-09-17 21:59:00,
2013-09-17 17:00:00,71.5,68.4,29.94,SE,139,0.9,4.0,90,0.00,OVC,,0.75,299.0,WeatherDisplay:10.37,2013-09-17 22:00:00,
2013-09-17 17:01:00,71.6,68.5,29.94,ESE,123,1.2,3.5,90,0.00,OVC,,0.75,299.0,WeatherDisplay:10.37,2013-09-17 22:01:00,
2013-09-17 17:02:00,71.7,68.6,29.94,ESE,123,0.0,3.5,90,0.00,OVC,,0.75,202.0,WeatherDisplay:10.37,2013-09-17 22:02:00,
2013-09-17 17:04:00,71.8,68.7,29.93,SE,134,0.0,1.2,90,0.00,OVC,,0.75,466.0,WeatherDisplay:10.37,2013-09-17 22:04:00,
2013-09-17 17:06:00,72.0,68.9,29.93,ESE,107,1.0,4.0,90,0.00,OVC,,0.75,448.0,WeatherDisplay:10.37,2013-09-17 22:06:00,
2013-09-17 17:07:00,72.1,68.7,29.93,East,98,1.1,3.5,89,0.00,OVC,,0.75,250.0,WeatherDisplay:10.37,2013-09-17 22:07:00,
2013-09-17 17:09:00,72.1,68.3,29.93,ESE,113,0.8,3.5,88,0.00,OVC,,0.75,216.0,WeatherDisplay:10.37,2013-09-17 22:09:00,
2013-09-17 17:11:00,72.0,68.2,29.93,East,88,3.1,11.5,88,0.00,OVC,,0.75,174.0,WeatherDisplay:10.37,2013-09-17 22:11:00,
2013-09-17 17:12:00,71.8,68.1,29.93,East,82,1.0,11.5,88,0.00,OVC,,0.75,186.0,WeatherDisplay:10.37,2013-09-17 22:12:00,
2013-09-17 17:14:00,71.7,68.0,29.93,ESE,108,1.8,6.9,88,0.00,OVC,,0.75,209.0,WeatherDisplay:10.37,2013-09-17 22:14:00,
2013-09-17 17:16:00,71.5,67.8,29.93,SE,129,1.5,2.3,88,0.00,OVC,,0.75,146.0,WeatherDisplay:10.37,2013-09-17 22:16:00,
2013-09-17 17:18:00,71.4,67.7,29.93,SE,125,1.8,5.8,88,0.00,OVC,,0.75,130.0,WeatherDisplay:10.37,2013-09-17 22:18:00,
2013-09-17 17:19:00,71.3,67.9,29.93,ESE,123,0.1,4.6,89,0.00,OVC,,0.75,162.0,WeatherDisplay:10.37,2013-09-17 22:19:00,
2013-09-17 17:21:00,71.2,67.8,29.93,ESE,105,4.2,6.9,89,0.00,OVC,,0.75,127.0,WeatherDisplay:10.37,2013-09-17 22:21:00,
2013-09-17 17:22:00,71.2,67.5,29.93,ESE,119,4.6,6.9,88,0.00,OVC,,0.75,151.0,WeatherDisplay:10.37,2013-09-17 22:22:00,
2013-09-17 17:23:00,71.1,67.4,29.93,SE,127,2.4,6.9,88,0.00,OVC,,0.75,163.0,WeatherDisplay:10.37,2013-09-17 22:23:00,
2013-09-17 17:24:00,71.0,67.3,29.93,ESE,119,2.8,6.9,88,0.00,OVC,,0.75,209.0,WeatherDisplay:10.37,2013-09-17 22:24:00,
2013-09-17 17:26:00,71.0,67.6,29.93,SSE,147,1.9,4.6,89,0.00,OVC,,0.75,239.0,WeatherDisplay:10.37,2013-09-17 22:26:00,
2013-09-17 17:27:00,71.0,67.6,29.93,SSE,147,0.9,4.6,89,0.00,OVC,,0.75,241.0,WeatherDisplay:10.37,2013-09-17 22:27:00,
2013-09-17 17:28:00,71.1,67.7,29.93,SE,146,0.0,0.0,89,0.00,OVC,,0.75,223.0,WeatherDisplay:10.37,2013-09-17 22:28:00,
2013-09-17 17:29:00,71.2,67.8,29.93,ESE,114,5.5,8.0,89,0.00,OVC,,0.75,223.0,WeatherDisplay:10.37,2013-09-17 22:29:00,
2013-09-17 17:32:00,71.3,67.9,29.93,SE,135,0.5,4.6,89,0.00,OVC,,0.75,118.0,WeatherDisplay:10.37,2013-09-17 22:32:00,
2013-09-17 17:33:00,71.3,67.6,29.93,SSE,153,2.7,6.0,88,0.00,OVC,,0.75,100.0,WeatherDisplay:10.37,2013-09-17 22:33:00,
2013-09-17 17:35:00,71.3,67.6,29.93,SE,144,3.2,10.4,88,0.00,OVC,,0.75,120.0,WeatherDisplay:10.37,2013-09-17 22:35:00,
2013-09-17 17:37:00,71.2,67.5,29.93,SE,125,1.9,9.2,88,0.00,OVC,,0.75,114.0,WeatherDisplay:10.37,2013-09-17 22:37:00,
2013-09-17 17:38:00,71.2,67.5,29.93,ESE,123,2.1,6.9,88,0.00,OVC,,0.75,102.0,WeatherDisplay:10.37,2013-09-17 22:38:00,
2013-09-17 17:40:00,71.1,67.7,29.93,NNE,17,3.6,9.2,89,0.00,OVC,,0.75,109.0,WeatherDisplay:10.37,2013-09-17 22:40:00,
2013-09-17 17:43:00,71.1,67.4,29.93,SE,128,0.2,3.5,88,0.00,OVC,,0.75,128.0,WeatherDisplay:10.37,2013-09-17 22:43:00,
2013-09-17 17:45:00,71.1,67.7,29.93,South,171,2.1,10.4,89,0.00,OVC,,0.75,158.0,WeatherDisplay:10.37,2013-09-17 22:45:00,
2013-09-17 17:48:00,71.1,67.7,29.93,ESE,109,3.3,5.8,89,0.00,OVC,,0.75,151.0,WeatherDisplay:10.37,2013-09-17 22:48:00,
2013-09-17 17:50:00,71.2,67.8,29.93,SE,131,2.2,9.2,89,0.00,OVC,,0.75,83.0,WeatherDisplay:10.37,2013-09-17 22:50:00,
2013-09-17 17:53:00,71.1,67.4,29.93,SE,125,3.6,11.5,88,0.00,OVC,,0.75,62.0,WeatherDisplay:10.37,2013-09-17 22:53:00,
2013-09-17 17:54:00,71.1,67.4,29.93,East,90,0.7,3.5,88,0.00,OVC,,0.75,69.0,WeatherDisplay:10.37,2013-09-17 22:54:00,
2013-09-17 17:55:00,71.0,67.6,29.93,SE,124,0.1,2.0,89,0.00,OVC,,0.75,81.0,WeatherDisplay:10.37,2013-09-17 22:55:00,
2013-09-17 17:58:00,70.9,67.5,29.93,SE,132,0.0,2.3,89,0.00,CLR,,0.75,83.0,WeatherDisplay:10.37,2013-09-17 22:58:00,
2013-09-17 17:59:00,70.9,67.5,29.93,ENE,73,1.6,10.4,89,0.00,CLR,,0.75,86.0,WeatherDisplay:10.37,2013-09-17 22:59:00,
2013-09-17 18:00:00,70.8,67.4,29.92,ENE,73,0.0,0.0,89,0.00,CLR,,0.75,107.0,WeatherDisplay:10.37,2013-09-17 23:00:00,
2013-09-17 18:03:00,70.8,67.4,29.92,SE,127,3.4,6.9,89,0.00,CLR,,0.75,107.0,WeatherDisplay:10.37,2013-09-17 23:03:00,
2013-09-17 18:05:00,70.8,67.4,29.92,ESE,111,1.5,6.9,89,0.00,CLR,,0.75,109.0,WeatherDisplay:10.37,2013-09-17 23:05:00,
2013-09-17 18:08:00,70.9,67.5,29.92,SE,124,1.1,3.5,89,0.00,CLR,,0.75,91.0,WeatherDisplay:10.37,2013-09-17 23:08:00,
2013-09-17 18:10:00,70.9,67.5,29.92,SE,128,0.2,1.2,89,0.00,CLR,,0.75,83.0,WeatherDisplay:10.37,2013-09-17 23:10:00,
2013-09-17 18:11:00,70.8,67.4,29.92,SE,130,1.8,3.0,89,0.00,CLR,,0.75,84.0,WeatherDisplay:10.37,2013-09-17 23:11:00,
2013-09-17 18:14:00,70.8,67.4,29.92,SE,144,0.8,4.0,89,0.00,CLR,,0.75,70.0,WeatherDisplay:10.37,2013-09-17 23:14:00,
2013-09-17 18:15:00,70.8,67.4,29.92,ESE,119,1.3,5.8,89,0.00,CLR,,0.75,65.0,WeatherDisplay:10.37,2013-09-17 23:15:00,
2013-09-17 18:16:00,70.7,67.3,29.92,SSE,150,0.0,1.2,89,0.00,CLR,,0.75,74.0,WeatherDisplay:10.37,2013-09-17 23:16:00,
2013-09-17 18:19:00,70.7,67.6,29.92,SE,140,0.0,4.6,90,0.00,CLR,,0.75,67.0,WeatherDisplay:10.37,2013-09-17 23:19:00,
2013-09-17 18:20:00,70.7,67.6,29.92,SE,130,0.1,5.0,90,0.00,CLR,,0.75,70.0,WeatherDisplay:10.37,2013-09-17 23:20:00,
2013-09-17 18:21:00,70.7,67.6,29.92,SE,141,0.3,4.6,90,0.00,CLR,,0.75,58.0,WeatherDisplay:10.37,2013-09-17 23:21:00,
2013-09-17 18:24:00,70.7,67.6,29.91,South,169,0.3,2.3,90,0.00,CLR,,0.75,49.0,WeatherDisplay:10.37,2013-09-17 23:24:00,
2013-09-17 18:25:00,70.6,67.5,29.91,SSE,167,0.2,2.3,90,0.00,CLR,,0.75,47.0,WeatherDisplay:10.37,2013-09-17 23:25:00,
2013-09-17 18:26:00,70.6,67.5,29.91,ESE,122,1.4,4.6,90,0.00,CLR,,0.75,46.0,WeatherDisplay:10.37,2013-09-17 23:26:00,
2013-09-17 18:29:00,70.6,67.5,29.91,ESE,119,1.1,3.5,90,0.00,SCT,,0.75,33.0,WeatherDisplay:10.37,2013-09-17 23:29:00,
2013-09-17 18:30:00,70.6,67.5,29.91,SE,127,2.7,3.5,90,0.00,SCT,,0.75,33.0,WeatherDisplay:10.37,2013-09-17 23:30:00,
2013-09-17 18:32:00,70.6,67.5,29.91,ESE,107,1.1,10.4,90,0.00,SCT,,0.75,37.0,WeatherDisplay:10.37,2013-09-17 23:32:00,
2013-09-17 18:35:00,70.6,67.5,29.91,SE,130,0.7,8.1,90,0.00,BKN,,0.75,35.0,WeatherDisplay:10.37,2013-09-17 23:35:00,
2013-09-17 18:37:00,70.5,67.4,29.91,East,94,1.0,8.1,90,0.00,BKN,,0.75,35.0,WeatherDisplay:10.37,2013-09-17 23:37:00,
2013-09-17 18:40:00,70.5,67.4,29.91,ESE,119,1.4,8.1,90,0.00,BKN,,0.75,37.0,WeatherDisplay:10.37,2013-09-17 23:40:00,
2013-09-17 18:43:00,70.4,67.3,29.91,SE,130,1.1,4.6,90,0.00,BKN,,0.75,39.0,WeatherDisplay:10.37,2013-09-17 23:43:00,
2013-09-17 18:45:00,70.4,67.3,29.91,ESE,122,0.0,0.0,90,0.00,BKN,,0.75,35.0,WeatherDisplay:10.37,2013-09-17 23:45:00,
2013-09-17 18:48:00,70.3,67.2,29.91,ESE,123,0.0,0.0,90,0.00,BKN,,0.75,30.0,WeatherDisplay:10.37,2013-09-17 23:48:00,
2013-09-17 18:50:00,70.3,67.2,29.91,SE,130,0.3,2.3,90,0.00,BKN,,0.75,28.0,WeatherDisplay:10.37,2013-09-17 23:50:00,
2013-09-17 18:51:00,70.3,67.2,29.91,SSW,196,0.1,1.2,90,0.00,BKN,,0.75,28.0,WeatherDisplay:10.37,2013-09-17 23:51:00,
2013-09-17 18:53:00,70.2,67.1,29.91,SE,126,0.5,3.5,90,0.00,BKN,,0.75,26.0,WeatherDisplay:10.37,2013-09-17 23:53:00,
2013-09-17 18:55:00,70.1,67.3,29.91,SE,136,0.0,2.3,91,0.00,BKN,,0.75,26.0,WeatherDisplay:10.37,2013-09-17 23:55:00,
2013-09-17 18:56:00,70.1,67.3,29.91,SSE,163,1.0,4.6,91,0.00,BKN,,0.75,26.0,WeatherDisplay:10.37,2013-09-17 23:56:00,
2013-09-17 18:58:00,70.1,67.3,29.91,SSE,148,0.7,5.8,91,0.00,BKN,,0.75,23.0,WeatherDisplay:10.37,2013-09-17 23:58:00,
2013-09-17 19:00:00,70.1,67.3,29.91,SSE,147,0.0,2.3,91,0.00,BKN,,0.75,21.0,WeatherDisplay:10.37,2013-09-18 00:00:00,
2013-09-17 19:01:00,70.1,67.3,29.91,ESE,115,0.0,0.0,91,0.00,BKN,,0.75,19.0,WeatherDisplay:10.37,2013-09-18 00:01:00,
2013-09-17 19:04:00,70.0,67.3,29.91,SE,134,1.3,3.5,91,0.00,BKN,,0.75,18.0,WeatherDisplay:10.37,2013-09-18 00:04:00,
2013-09-17 19:05:00,69.9,67.2,29.91,SE,144,0.1,1.2,91,0.00,BKN,,0.75,16.0,WeatherDisplay:10.37,2013-09-18 00:05:00,
2013-09-17 19:06:00,69.9,67.2,29.91,East,98,0.1,1.2,91,0.00,BKN,,0.75,16.0,WeatherDisplay:10.37,2013-09-18 00:06:00,
2013-09-17 19:07:00,69.9,67.2,29.91,SE,142,0.1,1.2,91,0.00,BKN,,0.75,14.0,WeatherDisplay:10.37,2013-09-18 00:07:00,
2013-09-17 19:09:00,69.8,67.1,29.91,SE,142,0.0,0.0,91,0.00,BKN,,0.75,14.0,WeatherDisplay:10.37,2013-09-18 00:09:00,
2013-09-17 19:11:00,69.8,67.1,29.91,SE,136,1.0,2.3,91,0.00,BKN,,0.75,12.0,WeatherDisplay:10.37,2013-09-18 00:11:00,
2013-09-17 19:12:00,69.7,67.3,29.90,ESE,115,0.0,3.5,92,0.00,BKN,,0.75,12.0,WeatherDisplay:10.37,2013-09-18 00:12:00,
2013-09-17 19:14:00,69.6,67.2,29.90,ESE,116,0.7,3.0,92,0.00,CLR,,0.75,9.0,WeatherDisplay:10.37,2013-09-18 00:14:00,
2013-09-17 19:16:00,69.6,67.2,29.90,ESE,123,0.3,3.5,92,0.00,CLR,,0.75,9.0,WeatherDisplay:10.37,2013-09-18 00:16:00,
2013-09-17 19:17:00,69.6,67.2,29.90,ESE,119,0.1,1.2,92,0.00,CLR,,0.75,7.0,WeatherDisplay:10.37,2013-09-18 00:17:00,
2013-09-17 19:19:00,69.5,67.1,29.90,SE,138,1.0,2.3,92,0.00,CLR,,0.75,7.0,WeatherDisplay:10.37,2013-09-18 00:19:00,
2013-09-17 19:21:00,69.5,67.1,29.90,SE,138,0.0,3.5,92,0.00,CLR,,0.75,5.0,WeatherDisplay:10.37,2013-09-18 00:21:00,
2013-09-17 19:22:00,69.5,67.1,29.90,SE,138,0.0,0.0,92,0.00,CLR,,0.75,5.0,WeatherDisplay:10.37,2013-09-18 00:22:00,
2013-09-17 19:24:00,69.4,67.0,29.90,SSE,148,0.0,1.2,92,0.00,CLR,,0.75,0.0,WeatherDisplay:10.37,2013-09-18 00:24:00,
2013-09-17 19:26:00,69.4,67.0,29.90,SSE,148,0.3,2.3,92,0.00,CLR,,0.75,0.0,WeatherDisplay:10.37,2013-09-18 00:26:00,
2013-09-17 19:27:00,69.3,67.2,29.90,ESE,118,1.9,3.5,93,0.00,CLR,,0.75,0.0,WeatherDisplay:10.37,2013-09-18 00:27:00,
2013-09-17 19:30:00,69.3,67.2,29.90,ESE,121,0.0,0.0,93,0.00,CLR,,0.75,0.0,WeatherDisplay:10.37,2013-09-18 00:30:00,
2013-09-17 19:31:00,69.2,67.1,29.90,ESE,121,0.2,2.3,93,0.00,CLR,,0.75,0.0,WeatherDisplay:10.37,2013-09-18 00:31:00,
2013-09-17 19:32:00,69.1,67.0,29.90,ESE,121,0.1,2.3,93,0.00,CLR,,0.75,0.0,WeatherDisplay:10.37,2013-09-18 00:32:00,
2013-09-17 19:35:00,69.1,67.0,29.90,SE,146,0.0,0.0,93,0.00,CLR,,0.75,0.0,WeatherDisplay:10.37,2013-09-18 00:35:00,
2013-09-17 19:36:00,69.0,66.9,29.90,SE,146,0.0,0.0,93,0.00,CLR,,0.75,0.0,WeatherDisplay:10.37,2013-09-18 00:36:00,
2013-09-17 19:37:00,69.0,66.9,29.90,SE,146,0.0,0.0,93,0.00,CLR,,0.75,0.0,WeatherDisplay:10.37,2013-09-18 00:37:00,
2013-09-17 19:40:00,68.9,67.1,29.91,ESE,122,0.2,1.2,94,0.00,CLR,,0.75,0.0,WeatherDisplay:10.37,2013-09-18 00:40:00,
2013-09-17 19:41:00,68.9,67.1,29.90,ESE,122,0.0,2.3,94,0.00,CLR,,0.75,0.0,WeatherDisplay:10.37,2013-09-18 00:41:00,
2013-09-17 19:42:00,68.9,67.1,29.90,ESE,122,0.0,0.0,94,0.00,CLR,,0.75,0.0,WeatherDisplay:10.37,2013-09-18 00:42:00,
2013-09-17 19:45:00,68.8,67.0,29.90,ESE,122,0.0,0.0,94,0.00,CLR,,0.75,0.0,WeatherDisplay:10.37,2013-09-18 00:45:00,
2013-09-17 19:46:00,68.8,67.0,29.90,ESE,122,0.0,0.0,94,0.00,CLR,,0.75,0.0,WeatherDisplay:10.37,2013-09-18 00:46:00,
2013-09-17 19:47:00,68.7,66.9,29.91,ESE,122,0.0,0.0,94,0.00,CLR,,0.75,0.0,WeatherDisplay:10.37,2013-09-18 00:47:00,
2013-09-17 19:51:00,68.6,66.8,29.90,ESE,122,0.0,0.0,94,0.00,CLR,,0.75,0.0,WeatherDisplay:10.37,2013-09-18 00:51:00,
2013-09-17 19:53:00,68.6,66.8,29.90,NE,49,0.1,2.3,94,0.00,CLR,,0.75,0.0,WeatherDisplay:10.37,2013-09-18 00:53:00,
2013-09-17 19:56:00,68.5,66.7,29.90,ESE,109,0.0,0.0,94,0.00,CLR,,0.75,0.0,WeatherDisplay:10.37,2013-09-18 00:56:00,
2013-09-17 19:58:00,68.4,66.6,29.90,ESE,111,0.3,2.3,94,0.00,CLR,,0.75,0.0,WeatherDisplay:10.37,2013-09-18 00:58:00,
2013-09-17 20:01:00,68.4,66.9,29.90,ESE,115,0.5,2.3,95,0.00,CLR,,0.75,0.0,WeatherDisplay:10.37,2013-09-18 01:01:00,
2013-09-17 20:02:00,68.4,66.9,29.90,ESE,115,0.4,2.3,95,0.00,CLR,,0.75,0.0,WeatherDisplay:10.37,2013-09-18 01:02:00,
2013-09-17 20:03:00,68.3,66.8,29.90,ESE,116,0.0,0.0,95,0.00,CLR,,0.75,0.0,WeatherDisplay:10.37,2013-09-18 01:03:00,
2013-09-17 20:05:00,68.3,66.8,29.91,ESE,116,0.0,0.0,95,0.00,CLR,,0.75,0.0,WeatherDisplay:10.37,2013-09-18 01:05:00,
2013-09-17 20:06:00,68.3,66.8,29.90,ESE,116,0.0,0.0,95,0.00,CLR,,0.75,0.0,WeatherDisplay:10.37,2013-09-18 01:06:00,
2013-09-17 20:07:00,68.3,66.8,29.90,ESE,115,0.0,0.0,95,0.00,CLR,,0.75,0.0,WeatherDisplay:10.37,2013-09-18 01:07:00,
2013-09-17 20:08:00,68.3,66.8,29.90,SE,137,0.3,0.0,95,0.00,CLR,,0.75,0.0,WeatherDisplay:10.37,2013-09-18 01:08:00,
2013-09-17 20:10:00,68.3,66.8,29.90,SE,137,0.0,0.0,95,0.00,CLR,,0.75,0.0,WeatherDisplay:10.37,2013-09-18 01:10:00,
2013-09-17 20:11:00,68.2,66.7,29.91,SE,137,0.0,0.0,95,0.00,CLR,,0.75,0.0,WeatherDisplay:10.37,2013-09-18 01:11:00,
2013-09-17 20:12:00,68.2,66.7,29.91,SE,137,0.0,0.0,95,0.00,CLR,,0.75,0.0,WeatherDisplay:10.37,2013-09-18 01:12:00,
2013-09-17 20:13:00,68.1,66.6,29.91,SE,137,0.0,0.0,95,0.00,CLR,,0.75,0.0,WeatherDisplay:10.37,2013-09-18 01:13:00,
2013-09-17 20:15:00,68.1,66.6,29.90,SE,138,0.4,2.3,95,0.00,CLR,,0.75,0.0,WeatherDisplay:10.37,2013-09-18 01:15:00,
2013-09-17 20:17:00,68.1,66.6,29.90,SE,138,0.0,0.0,95,0.00,CLR,,0.75,0.0,WeatherDisplay:10.37,2013-09-18 01:17:00,
2013-09-17 20:19:00,68.1,66.9,29.91,SE,129,0.5,1.2,96,0.00,CLR,,0.75,0.0,WeatherDisplay:10.37,2013-09-18 01:19:00,
2013-09-17 20:20:00,68.1,66.9,29.91,SE,129,0.0,0.0,96,0.00,CLR,,0.75,0.0,WeatherDisplay:10.37,2013-09-18 01:20:00,
2013-09-17 20:22:00,68.0,66.8,29.91,SE,129,0.0,0.0,96,0.00,CLR,,0.75,0.0,WeatherDisplay:10.37,2013-09-18 01:22:00,
2013-09-17 20:24:00,68.0,66.8,29.91,SE,135,1.1,3.5,96,0.00,CLR,,0.75,0.0,WeatherDisplay:10.37,2013-09-18 01:24:00,
2013-09-17 20:25:00,68.0,66.8,29.91,SE,135,0.2,2.3,96,0.00,CLR,,0.75,0.0,WeatherDisplay:10.37,2013-09-18 01:25:00,
2013-09-17 20:27:00,68.0,66.8,29.91,ESE,111,1.5,5.8,96,0.00,CLR,,0.75,0.0,WeatherDisplay:10.37,2013-09-18 01:27:00,
2013-09-17 20:28:00,68.0,66.8,29.91,SSW,205,0.2,4.6,96,0.00,CLR,,0.75,0.0,WeatherDisplay:10.37,2013-09-18 01:28:00,
2013-09-17 20:29:00,68.0,66.8,29.91,SSW,205,0.2,2.3,96,0.00,CLR,,0.75,0.0,WeatherDisplay:10.37,2013-09-18 01:29:00,
2013-09-17 20:31:00,68.0,66.8,29.92,East,88,0.1,2.3,96,0.00,CLR,,0.75,0.0,WeatherDisplay:10.37,2013-09-18 01:31:00,
2013-09-17 20:32:00,68.0,66.8,29.91,SE,138,0.5,2.3,96,0.00,CLR,,0.75,0.0,WeatherDisplay:10.37,2013-09-18 01:32:00,
2013-09-17 20:33:00,67.9,66.7,29.92,SE,139,0.2,2.3,96,0.00,CLR,,0.75,0.0,WeatherDisplay:10.37,2013-09-18 01:33:00,
2013-09-17 20:34:00,67.9,66.7,29.92,SE,139,0.0,2.3,96,0.00,CLR,,0.75,0.0,WeatherDisplay:10.37,2013-09-18 01:34:00,
2013-09-17 20:36:00,67.9,66.7,29.92,ESE,122,1.0,3.5,96,0.00,CLR,,0.75,0.0,WeatherDisplay:10.37,2013-09-18 01:36:00,
2013-09-17 20:37:00,67.9,66.7,29.92,East,87,0.0,3.5,96,0.00,CLR,,0.75,0.0,WeatherDisplay:10.37,2013-09-18 01:37:00,
2013-09-17 20:39:00,67.9,66.7,29.92,ESE,110,2.6,6.9,96,0.00,CLR,,0.75,0.0,WeatherDisplay:10.37,2013-09-18 01:39:00,
2013-09-17 20:42:00,67.9,66.7,29.92,South,186,1.8,3.5,96,0.00,CLR,,0.75,0.0,WeatherDisplay:10.37,2013-09-18 01:42:00,
2013-09-17 20:43:00,67.9,66.7,29.92,SE,124,0.1,4.6,96,0.00,CLR,,0.75,0.0,WeatherDisplay:10.37,2013-09-18 01:43:00,
2013-09-17 20:44:00,67.9,66.7,29.92,ESE,117,1.5,3.5,96,0.00,CLR,,0.75,0.0,WeatherDisplay:10.37,2013-09-18 01:44:00,
2013-09-17 20:47:00,67.9,66.7,29.92,SE,127,0.0,0.0,96,0.00,CLR,,0.75,0.0,WeatherDisplay:10.37,2013-09-18 01:47:00,
2013-09-17 20:48:00,67.9,66.7,29.92,ESE,118,0.0,1.2,96,0.00,CLR,,0.75,0.0,WeatherDisplay:10.37,2013-09-18 01:48:00,
2013-09-17 20:49:00,67.9,66.7,29.92,ESE,103,0.5,2.0,96,0.00,CLR,,0.75,0.0,WeatherDisplay:10.37,2013-09-18 01:49:00,
2013-09-17 20:50:00,67.9,66.7,29.92,ESE,111,0.8,3.5,96,0.00,CLR,,0.75,0.0,WeatherDisplay:10.37,2013-09-18 01:50:00,
2013-09-17 20:52:00,67.8,66.6,29.92,SSE,148,0.1,1.0,96,0.00,CLR,,0.75,0.0,WeatherDisplay:10.37,2013-09-18 01:52:00,
2013-09-17 20:53:00,67.8,66.6,29.92,SE,129,0.4,2.3,96,0.00,CLR,,0.75,0.0,WeatherDisplay:10.37,2013-09-18 01:53:00,
2013-09-17 20:54:00,67.8,66.6,29.92,SE,129,0.0,1.2,96,0.00,CLR,,0.75,0.0,WeatherDisplay:10.37,2013-09-18 01:54:00,
2013-09-17 20:55:00,67.8,66.6,29.92,SE,130,0.3,4.0,96,0.00,CLR,,0.75,0.0,WeatherDisplay:10.37,2013-09-18 01:55:00,
2013-09-17 20:57:00,67.8,66.6,29.92,SE,130,0.5,3.5,96,0.00,CLR,,0.75,0.0,WeatherDisplay:10.37,2013-09-18 01:57:00,
2013-09-17 20:58:00,67.8,66.6,29.92,East,93,1.0,1.2,96,0.00,CLR,,0.75,0.0,WeatherDisplay:10.37,2013-09-18 01:58:00,
2013-09-17 21:00:00,67.8,66.6,29.92,SE,137,0.7,4.6,96,0.00,CLR,,0.75,0.0,WeatherDisplay:10.37,2013-09-18 02:00:00,
2013-09-17 21:01:00,67.8,66.6,29.92,SE,137,0.0,2.3,96,0.00,CLR,,0.75,0.0,WeatherDisplay:10.37,2013-09-18 02:01:00,
2013-09-17 21:03:00,67.8,66.6,29.92,SSE,148,0.2,2.3,96,0.00,CLR,,0.75,0.0,WeatherDisplay:10.37,2013-09-18 02:03:00,
2013-09-17 21:05:00,67.7,66.5,29.92,SE,127,0.2,3.5,96,0.00,CLR,,0.75,0.0,WeatherDisplay:10.37,2013-09-18 02:05:00,
2013-09-17 21:06:00,67.8,66.6,29.92,SE,127,0.0,0.0,96,0.00,CLR,,0.75,0.0,WeatherDisplay:10.37,2013-09-18 02:06:00,
2013-09-17 21:08:00,67.7,66.5,29.92,SE,141,0.2,2.3,96,0.00,CLR,,0.75,0.0,WeatherDisplay:10.37,2013-09-18 02:08:00,
2013-09-17 21:10:00,67.7,66.5,29.92,SE,129,0.6,3.5,96,0.00,CLR,,0.75,0.0,WeatherDisplay:10.37,2013-09-18 02:10:00,
2013-09-17 21:11:00,67.7,66.2,29.92,SE,128,0.0,0.0,95,0.00,CLR,,0.75,0.0,WeatherDisplay:10.37,2013-09-18 02:11:00,
2013-09-17 21:13:00,67.7,66.2,29.92,ESE,121,0.1,2.0,95,0.00,CLR,,0.75,0.0,WeatherDisplay:10.37,2013-09-18 02:13:00,
2013-09-17 21:16:00,67.7,66.2,29.92,SE,130,0.0,4.0,95,0.00,CLR,,0.75,0.0,WeatherDisplay:10.37,2013-09-18 02:16:00,
2013-09-17 21:19:00,67.7,66.2,29.92,SE,127,0.0,1.2,95,0.00,CLR,,0.75,0.0,WeatherDisplay:10.37,2013-09-18 02:19:00,
2013-09-17 21:21:00,67.7,66.2,29.92,SE,138,0.3,2.3,95,0.00,CLR,,0.75,0.0,WeatherDisplay:10.37,2013-09-18 02:21:00,
2013-09-17 21:24:00,67.7,66.2,29.92,ESE,114,0.3,3.5,95,0.00,CLR,,0.75,0.0,WeatherDisplay:10.37,2013-09-18 02:24:00,
2013-09-17 21:26:00,67.6,66.4,29.92,SSE,148,0.4,1.2,96,0.00,CLR,,0.75,0.0,WeatherDisplay:10.37,2013-09-18 02:26:00,
2013-09-17 21:29:00,67.6,66.4,29.92,SSE,147,0.0,0.0,96,0.00,CLR,,0.75,0.0,WeatherDisplay:10.37,2013-09-18 02:29:00,
2013-09-17 21:31:00,67.6,66.4,29.92,ESE,119,0.1,2.3,96,0.00,CLR,,0.75,0.0,WeatherDisplay:10.37,2013-09-18 02:31:00,
2013-09-17 21:32:00,67.6,66.4,29.92,ESE,119,0.1,2.3,96,0.00,CLR,,0.75,0.0,WeatherDisplay:10.37,2013-09-18 02:32:00,
2013-09-17 21:34:00,67.6,66.4,29.92,ESE,114,0.3,2.3,96,0.00,CLR,,0.75,0.0,WeatherDisplay:10.37,2013-09-18 02:34:00,
2013-09-17 21:37:00,67.6,66.4,29.92,SSE,158,0.5,2.3,96,0.00,CLR,,0.75,0.0,WeatherDisplay:10.37,2013-09-18 02:37:00,
2013-09-17 21:39:00,67.5,66.3,29.92,SE,144,0.0,1.2,96,0.00,CLR,,0.75,0.0,WeatherDisplay:10.37,2013-09-18 02:39:00,
2013-09-17 21:42:00,67.5,66.3,29.92,SSE,147,2.9,8.1,96,0.00,CLR,,0.75,0.0,WeatherDisplay:10.37,2013-09-18 02:42:00,
2013-09-17 21:44:00,67.6,66.4,29.92,NE,36,0.8,3.5,96,0.00,CLR,,0.75,0.0,WeatherDisplay:10.37,2013-09-18 02:44:00,
2013-09-17 21:45:00,67.6,66.4,29.92,ESE,109,1.7,3.5,96,0.00,CLR,,0.75,0.0,WeatherDisplay:10.37,2013-09-18 02:45:00,
2013-09-17 21:47:00,67.6,66.4,29.92,ESE,120,0.4,2.3,96,0.00,CLR,,0.75,0.0,WeatherDisplay:10.37,2013-09-18 02:47:00,
2013-09-17 21:49:00,67.6,66.4,29.92,ESE,115,0.1,6.9,96,0.00,CLR,,0.75,0.0,WeatherDisplay:10.37,2013-09-18 02:49:00,
2013-09-17 21:50:00,67.6,66.4,29.92,ESE,112,1.3,3.5,96,0.00,CLR,,0.75,0.0,WeatherDisplay:10.37,2013-09-18 02:50:00,
2013-09-17 21:52:00,67.6,66.4,29.92,ESE,112,0.0,1.2,96,0.00,CLR,,0.75,0.0,WeatherDisplay:10.37,2013-09-18 02:52:00,
2013-09-17 21:54:00,67.6,66.4,29.92,SE,126,0.0,2.3,96,0.00,CLR,,0.75,0.0,WeatherDisplay:10.37,2013-09-18 02:54:00,
2013-09-17 21:56:00,67.6,66.4,29.92,SE,126,0.0,1.2,96,0.00,CLR,,0.75,0.0,WeatherDisplay:10.37,2013-09-18 02:56:00,
2013-09-17 21:57:00,67.6,66.4,29.92,SE,132,0.9,1.0,96,0.00,CLR,,0.75,0.0,WeatherDisplay:10.37,2013-09-18 02:57:00,
2013-09-17 22:00:00,67.6,66.4,29.92,SE,132,0.0,0.0,96,0.00,CLR,,0.75,0.0,WeatherDisplay:10.37,2013-09-18 03:00:00,
2013-09-17 22:01:00,67.6,66.4,29.92,SE,135,0.0,0.0,96,0.00,CLR,,0.75,0.0,WeatherDisplay:10.37,2013-09-18 03:01:00,
2013-09-17 22:03:00,67.6,66.4,29.92,ESE,117,2.0,4.6,96,0.00,CLR,,0.75,0.0,WeatherDisplay:10.37,2013-09-18 03:03:00,
2013-09-17 22:05:00,67.6,66.4,29.92,ESE,115,1.9,6.9,96,0.00,CLR,,0.75,0.0,WeatherDisplay:10.37,2013-09-18 03:05:00,
2013-09-17 22:06:00,67.6,66.4,29.92,SE,139,0.5,3.0,96,0.00,CLR,,0.75,0.0,WeatherDisplay:10.37,2013-09-18 03:06:00,
2013-09-17 22:08:00,67.6,66.4,29.92,ESE,116,1.2,3.5,96,0.00,CLR,,0.75,0.0,WeatherDisplay:10.37,2013-09-18 03:08:00,
2013-09-17 22:10:00,67.6,66.4,29.92,SE,138,0.0,1.2,96,0.00,CLR,,0.75,0.0,WeatherDisplay:10.37,2013-09-18 03:10:00,
2013-09-17 22:11:00,67.6,66.4,29.93,SSE,151,0.0,0.0,96,0.00,CLR,,0.75,0.0,WeatherDisplay:10.37,2013-09-18 03:11:00,
2013-09-17 22:13:00,67.6,66.4,29.92,SSE,151,0.0,0.0,96,0.00,CLR,,0.75,0.0,WeatherDisplay:10.37,2013-09-18 03:13:00,
2013-09-17 22:14:00,67.6,66.4,29.92,SSE,151,0.0,0.0,96,0.00,CLR,,0.75,0.0,WeatherDisplay:10.37,2013-09-18 03:14:00,
2013-09-17 22:15:00,67.6,66.4,29.92,ESE,111,0.6,3.5,96,0.00,CLR,,0.75,0.0,WeatherDisplay:10.37,2013-09-18 03:15:00,
2013-09-17 22:16:00,67.5,66.3,29.92,SSE,158,0.8,3.5,96,0.00,CLR,,0.75,0.0,WeatherDisplay:10.37,2013-09-18 03:16:00,
2013-09-17 22:18:00,67.6,66.4,29.92,SSE,149,0.0,4.6,96,0.00,CLR,,0.75,0.0,WeatherDisplay:10.37,2013-09-18 03:18:00,
2013-09-17 22:19:00,67.6,66.4,29.92,SE,129,0.3,2.3,96,0.00,CLR,,0.75,0.0,WeatherDisplay:10.37,2013-09-18 03:19:00,
2013-09-17 22:20:00,67.6,66.7,29.92,South,169,0.5,2.3,97,0.00,CLR,,0.75,0.0,WeatherDisplay:10.37,2013-09-18 03:20:00,
2013-09-17 22:21:00,67.6,66.7,29.92,SE,132,0.8,3.5,97,0.00,CLR,,0.75,0.0,WeatherDisplay:10.37,2013-09-18 03:21:00,
2013-09-17 22:23:00,67.6,66.7,29.92,SE,132,0.0,0.0,97,0.00,CLR,,0.75,0.0,WeatherDisplay:10.37,2013-09-18 03:23:00,
2013-09-17 22:24:00,67.6,66.7,29.92,ESE,122,0.0,0.0,97,0.00,CLR,,0.75,0.0,WeatherDisplay:10.37,2013-09-18 03:24:00,
2013-09-17 22:25:00,67.6,66.7,29.92,SE,136,0.0,0.0,97,0.00,CLR,,0.75,0.0,WeatherDisplay:10.37,2013-09-18 03:25:00,
2013-09-17 22:27:00,67.6,66.7,29.92,ESE,107,0.0,4.6,97,0.00,CLR,,0.75,0.0,WeatherDisplay:10.37,2013-09-18 03:27:00,
2013-09-17 22:28:00,67.6,66.7,29.92,ESE,107,0.0,0.0,97,0.00,CLR,,0.75,0.0,WeatherDisplay:10.37,2013-09-18 03:28:00,
2013-09-17 22:29:00,67.6,66.7,29.92,ESE,117,0.9,0.0,97,0.00,CLR,,0.75,0.0,WeatherDisplay:10.37,2013-09-18 03:29:00,
2013-09-17 22:30:00,67.6,66.7,29.92,East,84,1.0,3.5,97,0.00,CLR,,0.75,0.0,WeatherDisplay:10.37,2013-09-18 03:30:00,
2013-09-17 22:33:00,67.6,66.7,29.92,SE,128,1.8,4.6,97,0.00,CLR,,0.75,0.0,WeatherDisplay:10.37,2013-09-18 03:33:00,
2013-09-17 22:35:00,67.6,66.7,29.92,SE,127,0.0,1.2,97,0.00,CLR,,0.75,0.0,WeatherDisplay:10.37,2013-09-18 03:35:00,
2013-09-17 22:38:00,67.6,66.7,29.92,ESE,111,1.4,3.5,97,0.00,CLR,,0.75,0.0,WeatherDisplay:10.37,2013-09-18 03:38:00,
2013-09-17 22:39:00,67.6,66.7,29.92,ESE,111,0.8,3.5,97,0.00,CLR,,0.75,0.0,WeatherDisplay:10.37,2013-09-18 03:39:00,
2013-09-17 22:40:00,67.6,66.7,29.92,ESE,103,0.0,1.2,97,0.00,CLR,,0.75,0.0,WeatherDisplay:10.37,2013-09-18 03:40:00,
2013-09-17 22:44:00,67.6,66.7,29.92,South,173,0.5,3.5,97,0.00,CLR,,0.75,0.0,WeatherDisplay:10.37,2013-09-18 03:44:00,
2013-09-17 22:45:00,67.6,66.7,29.92,South,173,0.0,0.0,97,0.00,CLR,,0.75,0.0,WeatherDisplay:10.37,2013-09-18 03:45:00,
2013-09-17 22:46:00,67.6,66.7,29.92,ESE,120,0.0,3.0,97,0.00,CLR,,0.75,0.0,WeatherDisplay:10.37,2013-09-18 03:46:00,
2013-09-17 22:49:00,67.5,66.6,29.92,SE,138,0.0,1.2,97,0.00,CLR,,0.75,0.0,WeatherDisplay:10.37,2013-09-18 03:49:00,
2013-09-17 22:50:00,67.5,66.6,29.92,SE,134,0.6,1.2,97,0.00,CLR,,0.75,0.0,WeatherDisplay:10.37,2013-09-18 03:50:00,
2013-09-17 22:51:00,67.5,66.6,29.92,SE,133,0.7,1.2,97,0.00,CLR,,0.75,0.0,WeatherDisplay:10.37,2013-09-18 03:51:00,
2013-09-17 22:54:00,67.5,66.6,29.92,SE,144,0.2,1.2,97,0.00,CLR,,0.75,0.0,WeatherDisplay:10.37,2013-09-18 03:54:00,
2013-09-17 22:55:00,67.5,66.6,29.92,SE,141,0.0,1.2,97,0.00,CLR,,0.75,0.0,WeatherDisplay:10.37,2013-09-18 03:55:00,
2013-09-17 22:56:00,67.5,66.6,29.92,SE,141,0.0,1.2,97,0.00,CLR,,0.75,0.0,WeatherDisplay:10.37,2013-09-18 03:56:00,
2013-09-17 22:59:00,67.5,66.6,29.92,SE,140,0.0,1.2,97,0.00,CLR,,0.75,0.0,WeatherDisplay:10.37,2013-09-18 03:59:00,
2013-09-17 23:00:00,67.5,66.6,29.92,SSE,160,0.0,0.0,97,0.00,CLR,,0.75,0.0,WeatherDisplay:10.37,2013-09-18 04:00:00,
2013-09-17 23:01:00,67.5,66.6,29.92,East,98,0.0,0.0,97,0.00,CLR,,0.75,0.0,WeatherDisplay:10.37,2013-09-18 04:01:00,
2013-09-17 23:02:00,67.5,66.6,29.92,ESE,122,0.0,0.0,97,0.00,CLR,,0.75,0.0,WeatherDisplay:10.37,2013-09-18 04:02:00,
2013-09-17 23:06:00,67.5,66.6,29.92,SE,130,0.0,1.0,97,0.00,CLR,,0.75,0.0,WeatherDisplay:10.37,2013-09-18 04:06:00,
2013-09-17 23:07:00,67.6,66.7,29.92,SE,126,1.0,2.3,97,0.00,CLR,,0.75,0.0,WeatherDisplay:10.37,2013-09-18 04:07:00,
2013-09-17 23:11:00,67.6,66.7,29.92,SE,127,1.2,0.0,97,0.00,CLR,,0.75,0.0,WeatherDisplay:10.37,2013-09-18 04:11:00,
2013-09-17 23:12:00,67.6,66.7,29.92,SE,127,0.2,2.3,97,0.00,CLR,,0.75,0.0,WeatherDisplay:10.37,2013-09-18 04:12:00,
2013-09-17 23:16:00,67.5,66.6,29.91,SSE,153,1.2,4.6,97,0.00,CLR,,0.75,0.0,WeatherDisplay:10.37,2013-09-18 04:16:00,
2013-09-17 23:17:00,67.5,66.6,29.91,ESE,117,0.8,4.6,97,0.00,CLR,,0.75,0.0,WeatherDisplay:10.37,2013-09-18 04:17:00,
2013-09-17 23:18:00,67.6,66.7,29.91,ESE,117,0.0,0.0,97,0.00,CLR,,0.75,0.0,WeatherDisplay:10.37,2013-09-18 04:18:00,
2013-09-17 23:21:00,67.6,66.7,29.91,ESE,117,0.0,0.0,97,0.00,CLR,,0.75,0.0,WeatherDisplay:10.37,2013-09-18 04:21:00,
2013-09-17 23:22:00,67.6,66.7,29.91,ESE,116,0.7,7.0,97,0.00,CLR,,0.75,0.0,WeatherDisplay:10.37,2013-09-18 04:22:00,
2013-09-17 23:23:00,67.6,66.7,29.91,SE,142,2.3,8.1,97,0.00,CLR,,0.75,0.0,WeatherDisplay:10.37,2013-09-18 04:23:00,
2013-09-17 23:26:00,67.6,66.7,29.91,SE,131,0.0,0.0,97,0.00,CLR,,0.75,0.0,WeatherDisplay:10.37,2013-09-18 04:26:00,
2013-09-17 23:27:00,67.6,66.7,29.91,SE,132,0.2,2.3,97,0.00,CLR,,0.75,0.0,WeatherDisplay:10.37,2013-09-18 04:27:00,
2013-09-17 23:28:00,67.6,66.7,29.91,SE,142,0.6,2.3,97,0.00,CLR,,0.75,0.0,WeatherDisplay:10.37,2013-09-18 04:28:00,
2013-09-17 23:31:00,67.6,66.7,29.91,ESE,117,0.0,0.0,97,0.00,CLR,,0.75,0.0,WeatherDisplay:10.37,2013-09-18 04:31:00,
2013-09-17 23:32:00,67.6,66.7,29.91,East,98,0.0,0.0,97,0.00,CLR,,0.75,0.0,WeatherDisplay:10.37,2013-09-18 04:32:00,
2013-09-17 23:33:00,67.6,66.7,29.91,SSE,160,0.2,2.3,97,0.00,CLR,,0.75,0.0,WeatherDisplay:10.37,2013-09-18 04:33:00,
2013-09-17 23:35:00,67.6,66.7,29.91,SE,144,0.1,1.2,97,0.00,CLR,,0.75,0.0,WeatherDisplay:10.37,2013-09-18 04:35:00,
2013-09-17 23:36:00,67.6,66.7,29.91,ESE,107,0.3,1.2,97,0.00,CLR,,0.75,0.0,WeatherDisplay:10.37,2013-09-18 04:36:00,
2013-09-17 23:38:00,67.6,66.7,29.91,ESE,107,0.0,1.2,97,0.00,CLR,,0.75,0.0,WeatherDisplay:10.37,2013-09-18 04:38:00,
2013-09-17 23:40:00,67.6,66.7,29.91,ESE,121,0.4,1.2,97,0.00,CLR,,0.75,0.0,WeatherDisplay:10.37,2013-09-18 04:40:00,
2013-09-17 23:41:00,67.6,66.7,29.91,ESE,121,0.3,2.3,97,0.00,CLR,,0.75,0.0,WeatherDisplay:10.37,2013-09-18 04:41:00,
2013-09-17 23:43:00,67.6,66.7,29.91,ESE,117,0.8,4.6,97,0.00,CLR,,0.75,0.0,WeatherDisplay:10.37,2013-09-18 04:43:00,
2013-09-17 23:46:00,67.7,66.8,29.91,ESE,118,1.0,5.0,97,0.00,CLR,,0.75,0.0,WeatherDisplay:10.37,2013-09-18 04:46:00,
2013-09-17 23:48:00,67.7,66.8,29.91,ESE,120,0.7,4.6,97,0.00,CLR,,0.75,0.0,WeatherDisplay:10.37,2013-09-18 04:48:00,
2013-09-17 23:49:00,67.7,66.8,29.91,ESE,120,0.0,0.0,97,0.00,CLR,,0.75,0.0,WeatherDisplay:10.37,2013-09-18 04:49:00,
2013-09-17 23:51:00,67.7,66.8,29.91,ESE,117,0.0,0.0,97,0.00,CLR,,0.75,0.0,WeatherDisplay:10.37,2013-09-18 04:51:00,
2013-09-17 23:53:00,67.7,66.8,29.91,ESE,118,0.2,3.5,97,0.00,CLR,,0.75,0.0,WeatherDisplay:10.37,2013-09-18 04:53:00,
2013-09-17 23:54:00,67.7,66.8,29.91,ESE,118,0.0,2.3,97,0.00,CLR,,0.75,0.0,WeatherDisplay:10.37,2013-09-18 04:54:00,
2013-09-17 23:56:00,67.7,66.8,29.91,SE,125,0.0,0.0,97,0.00,RA,,0.00,0.0,WeatherDisplay:10.37,2013-09-18 04:56:00,
2013-09-17 23:57:00,67.7,66.8,29.91,ESE,123,0.4,2.0,97,0.00,RA,,0.00,0.0,WeatherDisplay:10.37,2013-09-18 04:57:00,
2013-09-17 23:58:00,67.6,66.7,29.91,SSE,160,0.2,2.3,97,0.00,RA,,0.00,0.0,WeatherDisplay:10.37,2013-09-18 04:58:00,
2013-09-17 23:59:00,67.7,66.8,29.91,SE,143,0.2,1.2,97,0.00,RA,,0.00,0.0,WeatherDisplay:10.37,2013-09-18 04:59:00,